Time,TemperatureF,DewpointF,PressureIn,WindDirection,WindDirectionDegrees,WindSpeedMPH,WindSpeedGustMPH,Humidity,HourlyPrecipIn,Conditions,Clouds,dailyrainin,SolarRadiationWatts/m^2,SoftwareType,DateUTC
2013-03-02 00:00:00,34.8,27.0,29.75,NNW,328,0.0,2.0,73,0.00,,---,0.01,0.00,VWS V14.01,2013-03-02 05:00:00,
2013-03-02 00:01:00,34.7,27.3,29.75,NNW,328,0.0,2.0,74,0.00,,---,0.01,0.00,VWS V14.01,2013-03-02 05:01:00,
2013-03-02 00:05:00,34.7,27.6,29.75,NE,55,0.0,1.0,75,0.00,,---,0.00,0.00,VWS V14.01,2013-03-02 05:05:00,
2013-03-02 00:06:00,34.7,27.6,29.75,NE,55,0.0,1.0,75,0.00,,---,0.00,0.00,VWS V14.01,2013-03-02 05:06:00,
2013-03-02 00:10:00,34.6,27.2,29.75,NE,55,0.0,2.0,74,0.00,,---,0.00,0.00,VWS V14.01,2013-03-02 05:10:00,
2013-03-02 00:11:00,34.6,27.2,29.75,NE,55,0.0,2.0,74,0.00,,---,0.00,0.00,VWS V14.01,2013-03-02 05:11:00,
2013-03-02 00:15:00,34.6,27.2,29.75,NNE,33,1.0,2.0,74,0.00,,---,0.00,0.00,VWS V14.01,2013-03-02 05:15:00,
2013-03-02 00:16:00,34.6,27.2,29.75,NNE,30,0.0,2.0,74,0.00,,---,0.00,0.00,VWS V14.01,2013-03-02 05:16:00,
2013-03-02 00:20:00,34.5,27.1,29.75,NNE,30,0.0,2.0,74,0.00,,---,0.00,0.00,VWS V14.01,2013-03-02 05:20:00,
2013-03-02 00:21:00,34.5,27.1,29.75,NNE,30,0.0,2.0,74,0.00,,---,0.00,0.00,VWS V14.01,2013-03-02 05:21:00,
2013-03-02 00:25:00,34.4,26.7,29.75,NNE,30,1.0,1.0,73,0.00,,---,0.00,0.00,VWS V14.01,2013-03-02 05:25:00,
2013-03-02 00:26:00,34.4,26.7,29.75,NNE,30,0.0,1.0,73,0.00,,---,0.00,0.00,VWS V14.01,2013-03-02 05:26:00,
2013-03-02 00:30:00,34.4,26.7,29.74,NNE,30,0.0,2.0,73,0.00,,---,0.00,0.00,VWS V14.01,2013-03-02 05:30:00,
2013-03-02 00:31:00,34.4,26.7,29.74,NNE,30,0.0,2.0,73,0.00,,---,0.00,0.00,VWS V14.01,2013-03-02 05:31:00,
2013-03-02 00:35:00,34.3,26.2,29.74,NNE,28,0.0,1.0,72,0.00,,---,0.00,0.00,VWS V14.01,2013-03-02 05:35:00,
2013-03-02 00:36:00,34.3,26.6,29.75,NNE,28,0.0,1.0,73,0.00,,---,0.00,0.00,VWS V14.01,2013-03-02 05:36:00,
2013-03-02 00:37:00,34.3,26.6,29.75,NNE,28,0.0,1.0,73,0.00,,---,0.00,0.00,VWS V14.01,2013-03-02 05:37:00,
2013-03-02 00:41:00,34.3,26.9,29.75,NNE,28,0.0,1.0,74,0.00,,---,0.00,0.00,VWS V14.01,2013-03-02 05:41:00,
2013-03-02 00:42:00,34.2,26.8,29.75,NNE,28,0.0,1.0,74,0.00,,---,0.00,0.00,VWS V14.01,2013-03-02 05:42:00,
2013-03-02 00:46:00,34.2,26.5,29.75,NNE,28,0.0,1.0,73,0.00,,---,0.00,0.00,VWS V14.01,2013-03-02 05:46:00,
2013-03-02 00:47:00,34.1,26.4,29.75,NNE,28,0.0,1.0,73,0.00,,---,0.00,0.00,VWS V14.01,2013-03-02 05:47:00,
2013-03-02 00:51:00,34.1,26.0,29.75,NNE,17,0.0,1.0,72,0.00,,---,0.00,0.00,VWS V14.01,2013-03-02 05:51:00,
2013-03-02 00:52:00,34.1,26.0,29.75,NNE,17,0.0,1.0,72,0.00,,---,0.00,0.00,VWS V14.01,2013-03-02 05:52:00,
2013-03-02 00:56:00,34.1,26.0,29.75,NNW,340,3.0,3.0,72,0.00,,---,0.00,0.00,VWS V14.01,2013-03-02 05:56:00,
2013-03-02 00:57:00,34.0,25.9,29.75,NNW,340,1.0,3.0,72,0.00,,---,0.00,0.00,VWS V14.01,2013-03-02 05:57:00,
2013-03-02 01:01:00,34.0,25.9,29.74,NNW,329,0.0,3.0,72,0.00,,---,0.00,0.00,VWS V14.01,2013-03-02 06:01:00,
2013-03-02 01:02:00,34.0,25.9,29.74,NNW,329,0.0,3.0,72,0.00,,---,0.00,0.00,VWS V14.01,2013-03-02 06:02:00,
2013-03-02 01:06:00,34.0,26.3,29.75,NNW,329,0.0,2.0,73,0.00,,---,0.00,0.00,VWS V14.01,2013-03-02 06:06:00,
2013-03-02 01:07:00,34.0,25.9,29.75,NNW,329,0.0,2.0,72,0.00,,---,0.00,0.00,VWS V14.01,2013-03-02 06:07:00,
2013-03-02 01:11:00,33.9,25.8,29.74,NNW,338,1.0,2.0,72,0.00,,---,0.00,0.00,VWS V14.01,2013-03-02 06:11:00,
2013-03-02 01:12:00,33.9,26.2,29.74,West,276,0.0,2.0,73,0.00,,---,0.00,0.00,VWS V14.01,2013-03-02 06:12:00,
2013-03-02 01:16:00,33.9,26.2,29.74,NNW,345,0.0,3.0,73,0.00,,---,0.00,0.00,VWS V14.01,2013-03-02 06:16:00,
2013-03-02 01:17:00,33.9,26.2,29.74,NNW,345,0.0,3.0,73,0.00,,---,0.00,0.00,VWS V14.01,2013-03-02 06:17:00,
2013-03-02 01:21:00,33.8,25.7,29.74,NW,304,0.0,3.0,72,0.00,,---,0.00,0.00,VWS V14.01,2013-03-02 06:21:00,
2013-03-02 01:22:00,33.8,25.7,29.74,WNW,300,0.0,3.0,72,0.00,,---,0.00,0.00,VWS V14.01,2013-03-02 06:22:00,
2013-03-02 01:26:00,33.7,25.6,29.74,NW,304,0.0,1.0,72,0.00,,---,0.00,0.00,VWS V14.01,2013-03-02 06:26:00,
2013-03-02 01:27:00,33.7,25.6,29.74,NW,304,0.0,1.0,72,0.00,,---,0.00,0.00,VWS V14.01,2013-03-02 06:27:00,
2013-03-02 01:32:00,33.7,25.6,29.74,NNW,345,0.0,4.0,72,0.00,,---,0.00,0.00,VWS V14.01,2013-03-02 06:32:00,
2013-03-02 01:33:00,33.7,25.6,29.74,NNW,343,0.0,1.0,72,0.00,,---,0.00,0.00,VWS V14.01,2013-03-02 06:33:00,
2013-03-02 01:37:00,33.6,25.5,29.74,SSW,211,0.0,2.0,72,0.00,,---,0.00,0.00,VWS V14.01,2013-03-02 06:37:00,
2013-03-02 01:38:00,33.6,25.9,29.74,WSW,239,0.0,2.0,73,0.00,,---,0.00,0.00,VWS V14.01,2013-03-02 06:38:00,
2013-03-02 01:42:00,33.6,25.5,29.74,NNW,343,1.0,3.0,72,0.00,,---,0.00,0.00,VWS V14.01,2013-03-02 06:42:00,
2013-03-02 01:43:00,33.5,25.5,29.74,NNW,343,0.0,2.0,72,0.00,,---,0.00,0.00,VWS V14.01,2013-03-02 06:43:00,
2013-03-02 01:47:00,33.5,25.8,29.74,NNW,343,0.0,2.0,73,0.00,,---,0.00,0.00,VWS V14.01,2013-03-02 06:47:00,
2013-03-02 01:48:00,33.5,25.8,29.74,NNW,343,0.0,2.0,73,0.00,,---,0.00,0.00,VWS V14.01,2013-03-02 06:48:00,
2013-03-02 01:52:00,33.4,25.4,29.74,WNW,302,0.0,2.0,72,0.00,,---,0.00,0.00,VWS V14.01,2013-03-02 06:52:00,
2013-03-02 01:53:00,33.4,25.4,29.74,NW,305,0.0,1.0,72,0.00,,---,0.00,0.00,VWS V14.01,2013-03-02 06:53:00,
2013-03-02 01:57:00,33.4,25.4,29.74,SSW,210,2.0,3.0,72,0.00,,---,0.00,0.00,VWS V14.01,2013-03-02 06:57:00,
2013-03-02 01:58:00,33.4,25.4,29.74,SW,227,0.0,3.0,72,0.00,,---,0.00,0.00,VWS V14.01,2013-03-02 06:58:00,
2013-03-02 02:02:00,33.3,25.3,29.74,NNW,331,0.0,0.0,72,0.00,,---,0.00,0.00,VWS V14.01,2013-03-02 07:02:00,
2013-03-02 02:03:00,33.3,25.3,29.74,NNW,331,0.0,1.0,72,0.00,,---,0.00,0.00,VWS V14.01,2013-03-02 07:03:00,
2013-03-02 02:07:00,33.3,25.3,29.74,NNW,331,2.0,2.0,72,0.00,,---,0.00,0.00,VWS V14.01,2013-03-02 07:07:00,
2013-03-02 02:08:00,33.3,25.3,29.74,NNW,331,0.0,2.0,72,0.00,,---,0.00,0.00,VWS V14.01,2013-03-02 07:08:00,
2013-03-02 02:12:00,33.3,25.6,29.74,NNW,331,0.0,0.0,73,0.00,,---,0.00,0.00,VWS V14.01,2013-03-02 07:12:00,
2013-03-02 02:13:00,33.3,25.6,29.74,NNW,331,0.0,0.0,73,0.00,,---,0.00,0.00,VWS V14.01,2013-03-02 07:13:00,
2013-03-02 02:17:00,33.2,25.2,29.73,NNW,337,0.0,3.0,72,0.00,,---,0.00,0.00,VWS V14.01,2013-03-02 07:17:00,
2013-03-02 02:18:00,33.2,25.2,29.73,NNW,337,0.0,3.0,72,0.00,,---,0.00,0.00,VWS V14.01,2013-03-02 07:18:00,
2013-03-02 02:22:00,33.2,25.5,29.73,NNW,337,0.0,1.0,73,0.00,,---,0.00,0.00,VWS V14.01,2013-03-02 07:22:00,
2013-03-02 02:23:00,33.2,25.5,29.73,NNW,337,0.0,1.0,73,0.00,,---,0.00,0.00,VWS V14.01,2013-03-02 07:23:00,
2013-03-02 02:27:00,33.2,25.2,29.73,NNW,335,0.0,3.0,72,0.00,,---,0.00,0.00,VWS V14.01,2013-03-02 07:27:00,
2013-03-02 02:28:00,33.1,25.1,29.73,NNW,334,0.0,3.0,72,0.00,,---,0.00,0.00,VWS V14.01,2013-03-02 07:28:00,
2013-03-02 02:33:00,33.1,25.1,29.73,North,351,0.0,3.0,72,0.00,,---,0.00,0.00,VWS V14.01,2013-03-02 07:33:00,
2013-03-02 02:38:00,33.1,25.1,29.73,NNW,337,0.0,3.0,72,0.00,,---,0.00,0.00,VWS V14.01,2013-03-02 07:38:00,
2013-03-02 02:43:00,33.1,25.1,29.73,NNW,328,0.0,2.0,72,0.00,,---,0.00,0.00,VWS V14.01,2013-03-02 07:43:00,
2013-03-02 02:48:00,33.0,25.3,29.73,NNW,336,2.0,3.0,73,0.00,,---,0.00,0.00,VWS V14.01,2013-03-02 07:48:00,
2013-03-02 02:49:00,33.0,25.3,29.73,NNW,336,0.0,3.0,73,0.00,,---,0.00,0.00,VWS V14.01,2013-03-02 07:49:00,
2013-03-02 02:53:00,33.0,25.3,29.73,NNW,336,0.0,0.0,73,0.00,,---,0.00,0.00,VWS V14.01,2013-03-02 07:53:00,
2013-03-02 02:54:00,33.0,25.6,29.73,NNW,336,0.0,2.0,74,0.00,,---,0.00,0.00,VWS V14.01,2013-03-02 07:54:00,
2013-03-02 02:58:00,33.0,25.3,29.73,West,265,0.0,2.0,73,0.00,,---,0.00,0.00,VWS V14.01,2013-03-02 07:58:00,
2013-03-02 02:59:00,33.0,25.3,29.73,West,265,0.0,2.0,73,0.00,,---,0.00,0.00,VWS V14.01,2013-03-02 07:59:00,
2013-03-02 03:03:00,33.0,25.3,29.73,WNW,302,0.0,0.0,73,0.00,,---,0.00,0.00,VWS V14.01,2013-03-02 08:03:00,
2013-03-02 03:04:00,33.0,25.3,29.73,WNW,302,0.0,0.0,73,0.00,,---,0.00,0.00,VWS V14.01,2013-03-02 08:04:00,
2013-03-02 03:08:00,33.0,25.3,29.74,WNW,286,0.0,1.0,73,0.00,,---,0.00,0.00,VWS V14.01,2013-03-02 08:08:00,
2013-03-02 03:09:00,32.9,25.2,29.74,WNW,286,0.0,1.0,73,0.00,,---,0.00,0.00,VWS V14.01,2013-03-02 08:09:00,
2013-03-02 03:13:00,32.9,24.9,29.73,WNW,286,0.0,0.0,72,0.00,,---,0.00,0.00,VWS V14.01,2013-03-02 08:13:00,
2013-03-02 03:14:00,32.9,24.9,29.73,WNW,286,0.0,0.0,72,0.00,,---,0.00,0.00,VWS V14.01,2013-03-02 08:14:00,
2013-03-02 03:19:00,32.9,25.2,29.74,WNW,286,0.0,1.0,73,0.00,,---,0.00,0.00,VWS V14.01,2013-03-02 08:19:00,
2013-03-02 03:24:00,32.9,25.2,29.74,WSW,249,0.0,0.0,73,0.00,,---,0.00,0.00,VWS V14.01,2013-03-02 08:24:00,
2013-03-02 03:25:00,32.8,25.1,29.74,WSW,249,0.0,0.0,73,0.00,,---,0.00,0.00,VWS V14.01,2013-03-02 08:25:00,
2013-03-02 03:29:00,32.8,25.1,29.74,NW,311,0.0,1.0,73,0.00,,---,0.00,0.00,VWS V14.01,2013-03-02 08:29:00,
2013-03-02 03:30:00,32.8,24.8,29.74,NW,311,0.0,1.0,72,0.00,,---,0.00,0.00,VWS V14.01,2013-03-02 08:30:00,
2013-03-02 03:34:00,32.8,25.1,29.74,NW,311,0.0,0.0,73,0.00,,---,0.00,0.00,VWS V14.01,2013-03-02 08:34:00,
2013-03-02 03:35:00,32.8,25.4,29.74,NW,311,0.0,0.0,74,0.00,,---,0.00,0.00,VWS V14.01,2013-03-02 08:35:00,
2013-03-02 03:39:00,32.8,25.4,29.74,West,271,0.0,2.0,74,0.00,,---,0.00,0.00,VWS V14.01,2013-03-02 08:39:00,
2013-03-02 03:40:00,32.8,25.4,29.74,West,279,0.0,2.0,74,0.00,,---,0.00,0.00,VWS V14.01,2013-03-02 08:40:00,
2013-03-02 03:44:00,32.8,25.1,29.74,West,279,0.0,0.0,73,0.00,,---,0.00,0.00,VWS V14.01,2013-03-02 08:44:00,
2013-03-02 03:45:00,32.7,25.0,29.74,West,279,0.0,0.0,73,0.00,,---,0.00,0.00,VWS V14.01,2013-03-02 08:45:00,
2013-03-02 03:49:00,32.7,25.3,29.74,WNW,283,0.0,2.0,74,0.00,,---,0.00,0.00,VWS V14.01,2013-03-02 08:49:00,
2013-03-02 03:50:00,32.7,25.3,29.74,WNW,283,0.0,2.0,74,0.00,,---,0.00,0.00,VWS V14.01,2013-03-02 08:50:00,
2013-03-02 03:54:00,32.7,25.3,29.74,NNW,327,0.0,0.0,74,0.00,,---,0.00,0.00,VWS V14.01,2013-03-02 08:54:00,
2013-03-02 03:55:00,32.7,25.3,29.74,NNW,327,0.0,0.0,74,0.00,,---,0.00,0.00,VWS V14.01,2013-03-02 08:55:00,
2013-03-02 04:00:00,32.6,25.2,29.74,NNW,346,0.0,4.0,74,0.00,,---,0.00,0.00,VWS V14.01,2013-03-02 09:00:00,
2013-03-02 04:05:00,32.6,25.6,29.74,NW,324,0.0,2.0,75,0.00,,---,0.00,0.00,VWS V14.01,2013-03-02 09:05:00,
2013-03-02 04:06:00,32.6,25.2,29.74,NW,324,0.0,2.0,74,0.00,,---,0.00,0.00,VWS V14.01,2013-03-02 09:06:00,
2013-03-02 04:10:00,32.5,25.1,29.74,NNW,332,0.0,2.0,74,0.00,,---,0.00,0.00,VWS V14.01,2013-03-02 09:10:00,
2013-03-02 04:11:00,32.5,25.1,29.74,NNW,332,0.0,2.0,74,0.00,,---,0.00,0.00,VWS V14.01,2013-03-02 09:11:00,
2013-03-02 04:15:00,32.5,25.5,29.74,NNW,332,0.0,0.0,75,0.00,,---,0.00,0.00,VWS V14.01,2013-03-02 09:15:00,
2013-03-02 04:16:00,32.5,25.5,29.74,NNW,332,0.0,0.0,75,0.00,,---,0.00,0.00,VWS V14.01,2013-03-02 09:16:00,
2013-03-02 04:20:00,32.5,25.5,29.74,NNW,340,2.0,2.0,75,0.00,,---,0.00,0.00,VWS V14.01,2013-03-02 09:20:00,
2013-03-02 04:21:00,32.5,25.1,29.74,NNW,340,0.0,2.0,74,0.00,,---,0.00,0.00,VWS V14.01,2013-03-02 09:21:00,
2013-03-02 04:25:00,32.5,25.1,29.74,WNW,292,0.0,1.0,74,0.00,,---,0.00,0.00,VWS V14.01,2013-03-02 09:25:00,
2013-03-02 04:26:00,32.5,25.1,29.74,SW,222,0.0,1.0,74,0.00,,---,0.00,0.00,VWS V14.01,2013-03-02 09:26:00,
2013-03-02 04:30:00,32.4,25.0,29.74,NNW,333,0.0,3.0,74,0.00,,---,0.00,0.00,VWS V14.01,2013-03-02 09:30:00,
2013-03-02 04:31:00,32.4,24.7,29.74,WNW,286,0.0,3.0,73,0.00,,---,0.00,0.00,VWS V14.01,2013-03-02 09:31:00,
2013-03-02 04:35:00,32.4,25.0,29.74,NNE,26,0.0,1.0,74,0.00,,---,0.00,0.00,VWS V14.01,2013-03-02 09:35:00,
2013-03-02 04:36:00,32.4,25.0,29.74,NNE,26,0.0,1.0,74,0.00,,---,0.00,0.00,VWS V14.01,2013-03-02 09:36:00,
2013-03-02 04:40:00,32.4,25.0,29.74,NNW,338,0.0,2.0,74,0.00,,---,0.00,0.00,VWS V14.01,2013-03-02 09:40:00,
2013-03-02 04:41:00,32.4,25.0,29.74,WNW,290,0.0,2.0,74,0.00,,---,0.00,0.00,VWS V14.01,2013-03-02 09:41:00,
2013-03-02 04:45:00,32.4,25.4,29.74,WSW,246,0.0,2.0,75,0.00,,---,0.00,0.00,VWS V14.01,2013-03-02 09:45:00,
2013-03-02 04:46:00,32.4,25.0,29.74,WSW,250,0.0,2.0,74,0.00,,---,0.00,0.00,VWS V14.01,2013-03-02 09:46:00,
2013-03-02 04:47:00,32.3,25.0,29.74,WSW,250,1.0,2.0,74,0.00,,---,0.00,0.00,VWS V14.01,2013-03-02 09:47:00,
2013-03-02 04:50:00,32.3,25.0,29.75,WSW,238,0.0,2.0,74,0.00,,---,0.00,0.00,VWS V14.01,2013-03-02 09:50:00,
2013-03-02 04:51:00,32.4,25.0,29.74,WSW,238,0.0,2.0,74,0.00,,---,0.00,0.00,VWS V14.01,2013-03-02 09:51:00,
2013-03-02 04:52:00,32.3,25.0,29.74,WSW,238,0.0,2.0,74,0.00,,---,0.00,0.00,VWS V14.01,2013-03-02 09:52:00,
2013-03-02 04:55:00,32.3,25.0,29.74,WSW,238,0.0,0.0,74,0.00,,---,0.00,0.00,VWS V14.01,2013-03-02 09:55:00,
2013-03-02 04:56:00,32.3,25.0,29.74,NNW,339,0.0,2.0,74,0.00,,---,0.00,0.00,VWS V14.01,2013-03-02 09:56:00,
2013-03-02 04:57:00,32.3,25.0,29.74,NNW,339,0.0,2.0,74,0.00,,---,0.00,0.00,VWS V14.01,2013-03-02 09:57:00,
2013-03-02 05:01:00,32.3,25.0,29.74,WNW,288,0.0,2.0,74,0.00,,---,0.00,0.00,VWS V14.01,2013-03-02 10:01:00,
2013-03-02 05:02:00,32.3,25.0,29.74,WNW,288,0.0,2.0,74,0.00,,---,0.00,0.00,VWS V14.01,2013-03-02 10:02:00,
2013-03-02 05:06:00,32.3,25.0,29.74,West,265,0.0,1.0,74,0.00,,---,0.00,0.00,VWS V14.01,2013-03-02 10:06:00,
2013-03-02 05:07:00,32.3,25.3,29.74,West,265,0.0,1.0,75,0.00,,---,0.00,0.00,VWS V14.01,2013-03-02 10:07:00,
2013-03-02 05:08:00,32.3,25.3,29.74,West,265,0.0,1.0,75,0.00,,---,0.00,0.00,VWS V14.01,2013-03-02 10:08:00,
2013-03-02 05:09:00,32.3,25.3,29.74,West,265,0.0,1.0,75,0.00,,---,0.00,0.00,VWS V14.01,2013-03-02 10:09:00,
2013-03-02 05:11:00,32.3,25.0,29.74,NW,314,0.0,2.0,74,0.00,,---,0.00,0.00,VWS V14.01,2013-03-02 10:11:00,
2013-03-02 05:13:00,32.3,25.0,29.74,NW,314,0.0,0.0,74,0.00,,---,0.00,0.00,VWS V14.01,2013-03-02 10:13:00,
2013-03-02 05:14:00,32.3,25.0,29.74,NW,314,0.0,0.0,74,0.00,,---,0.00,0.00,VWS V14.01,2013-03-02 10:14:00,
2013-03-02 05:17:00,32.3,25.3,29.74,NW,314,0.0,0.0,75,0.00,,---,0.00,0.00,VWS V14.01,2013-03-02 10:17:00,
2013-03-02 05:18:00,32.3,25.3,29.74,NW,314,0.0,0.0,75,0.00,,---,0.00,0.00,VWS V14.01,2013-03-02 10:18:00,
2013-03-02 05:19:00,32.3,25.0,29.74,NW,314,0.0,0.0,74,0.00,,---,0.00,0.00,VWS V14.01,2013-03-02 10:19:00,
2013-03-02 05:22:00,32.2,24.9,29.74,NW,314,0.0,0.0,74,0.00,,---,0.00,0.00,VWS V14.01,2013-03-02 10:22:00,
2013-03-02 05:23:00,32.2,24.9,29.74,NW,314,0.0,0.0,74,0.00,,---,0.00,0.00,VWS V14.01,2013-03-02 10:23:00,
2013-03-02 05:24:00,32.2,24.9,29.74,NW,314,0.0,0.0,74,0.00,,---,0.00,0.00,VWS V14.01,2013-03-02 10:24:00,
2013-03-02 05:27:00,32.2,24.9,29.74,NNW,335,0.0,2.0,74,0.00,,---,0.00,0.00,VWS V14.01,2013-03-02 10:27:00,
2013-03-02 05:28:00,32.2,24.9,29.74,NNW,335,0.0,2.0,74,0.00,,---,0.00,0.00,VWS V14.01,2013-03-02 10:28:00,
2013-03-02 05:29:00,32.2,24.9,29.74,NNW,335,1.0,2.0,74,0.00,,---,0.00,0.00,VWS V14.01,2013-03-02 10:29:00,
2013-03-02 05:32:00,32.2,24.9,29.74,SW,222,0.0,2.0,74,0.00,,---,0.00,0.00,VWS V14.01,2013-03-02 10:32:00,
2013-03-02 05:33:00,32.1,24.8,29.74,WNW,300,0.0,1.0,74,0.00,,---,0.00,0.00,VWS V14.01,2013-03-02 10:33:00,
2013-03-02 05:34:00,32.2,24.9,29.74,WNW,300,0.0,1.0,74,0.00,,---,0.00,0.00,VWS V14.01,2013-03-02 10:34:00,
2013-03-02 05:36:00,32.1,24.8,29.74,WNW,300,0.0,1.0,74,0.00,,---,0.00,0.00,VWS V14.01,2013-03-02 10:36:00,
2013-03-02 05:37:00,32.1,24.8,29.74,WNW,300,0.0,1.0,74,0.00,,---,0.00,0.00,VWS V14.01,2013-03-02 10:37:00,
2013-03-02 05:39:00,32.1,24.8,29.74,WNW,298,0.0,1.0,74,0.00,,---,0.00,0.00,VWS V14.01,2013-03-02 10:39:00,
2013-03-02 05:42:00,32.1,25.1,29.74,WNW,298,0.0,1.0,75,0.00,,---,0.00,0.00,VWS V14.01,2013-03-02 10:42:00,
2013-03-02 05:44:00,32.1,24.8,29.74,WNW,298,0.0,0.0,74,0.00,,---,0.00,0.00,VWS V14.01,2013-03-02 10:44:00,
2013-03-02 05:47:00,32.1,24.8,29.74,WNW,298,0.0,0.0,74,0.00,,---,0.00,0.00,VWS V14.01,2013-03-02 10:47:00,
2013-03-02 05:49:00,32.1,25.1,29.74,WNW,298,0.0,0.0,75,0.00,,---,0.00,0.00,VWS V14.01,2013-03-02 10:49:00,
2013-03-02 05:52:00,32.1,25.1,29.74,WNW,298,0.0,0.0,75,0.00,,---,0.00,0.00,VWS V14.01,2013-03-02 10:52:00,
2013-03-02 05:54:00,32.0,24.7,29.74,WNW,298,0.0,0.0,74,0.00,,---,0.00,0.00,VWS V14.01,2013-03-02 10:54:00,
2013-03-02 05:57:00,32.1,25.1,29.74,WNW,298,0.0,0.0,75,0.00,,---,0.00,0.00,VWS V14.01,2013-03-02 10:57:00,
2013-03-02 05:59:00,32.0,25.0,29.74,WNW,298,0.0,0.0,75,0.00,,---,0.00,0.00,VWS V14.01,2013-03-02 10:59:00,
2013-03-02 06:02:00,32.0,25.0,29.74,WNW,298,0.0,0.0,75,0.00,,---,0.00,0.00,VWS V14.01,2013-03-02 11:02:00,
2013-03-02 06:04:00,32.0,24.7,29.74,WNW,298,0.0,0.0,74,0.00,,---,0.00,0.00,VWS V14.01,2013-03-02 11:04:00,
2013-03-02 06:05:00,32.0,24.7,29.74,WNW,298,0.0,0.0,74,0.00,,---,0.00,0.00,VWS V14.01,2013-03-02 11:05:00,
2013-03-02 06:07:00,32.0,25.0,29.74,WNW,298,0.0,1.0,75,0.00,,---,0.00,0.00,VWS V14.01,2013-03-02 11:07:00,
2013-03-02 06:09:00,32.0,25.0,29.74,WSW,252,0.0,1.0,75,0.00,,---,0.00,0.00,VWS V14.01,2013-03-02 11:09:00,
2013-03-02 06:10:00,31.9,24.9,29.74,SW,225,2.0,2.0,75,0.00,,---,0.00,0.00,VWS V14.01,2013-03-02 11:10:00,
2013-03-02 06:12:00,31.9,24.6,29.74,WSW,246,0.0,0.0,74,0.00,,---,0.00,0.00,VWS V14.01,2013-03-02 11:12:00,
2013-03-02 06:14:00,31.9,24.6,29.74,WSW,246,0.0,0.0,74,0.00,,---,0.00,0.00,VWS V14.01,2013-03-02 11:14:00,
2013-03-02 06:15:00,31.9,24.6,29.74,WSW,246,0.0,0.0,74,0.00,,---,0.00,0.00,VWS V14.01,2013-03-02 11:15:00,
2013-03-02 06:17:00,31.9,24.6,29.74,NW,304,2.0,2.0,74,0.00,,---,0.00,0.00,VWS V14.01,2013-03-02 11:17:00,
2013-03-02 06:19:00,31.9,24.6,29.74,North,355,2.0,3.0,74,0.00,,---,0.00,0.00,VWS V14.01,2013-03-02 11:19:00,
2013-03-02 06:20:00,31.9,24.6,29.74,NNW,348,1.0,3.0,74,0.00,,---,0.00,0.00,VWS V14.01,2013-03-02 11:20:00,
2013-03-02 06:22:00,31.9,24.2,29.74,NNW,348,0.0,0.0,73,0.00,,---,0.00,0.00,VWS V14.01,2013-03-02 11:22:00,
2013-03-02 06:24:00,31.8,24.5,29.74,NNW,340,0.0,1.0,74,0.00,,---,0.00,0.00,VWS V14.01,2013-03-02 11:24:00,
2013-03-02 06:25:00,31.8,24.5,29.74,SW,229,2.0,2.0,74,0.00,,---,0.00,0.00,VWS V14.01,2013-03-02 11:25:00,
2013-03-02 06:27:00,31.8,24.5,29.74,NW,311,1.0,2.0,74,0.00,,---,0.00,0.00,VWS V14.01,2013-03-02 11:27:00,
2013-03-02 06:30:00,31.7,24.4,29.74,NW,311,0.0,2.0,74,0.00,,---,0.00,0.00,VWS V14.01,2013-03-02 11:30:00,
2013-03-02 06:32:00,31.7,24.7,29.74,NW,311,0.0,0.0,75,0.00,,---,0.00,5.00,VWS V14.01,2013-03-02 11:32:00,
2013-03-02 06:33:00,31.7,24.7,29.74,NW,311,0.0,1.0,75,0.00,,---,0.00,5.00,VWS V14.01,2013-03-02 11:33:00,
2013-03-02 06:35:00,31.7,24.7,29.74,NW,311,0.0,1.0,75,0.00,,---,0.00,5.00,VWS V14.01,2013-03-02 11:35:00,
2013-03-02 06:38:00,31.7,24.7,29.74,NW,311,0.0,1.0,75,0.00,,---,0.00,7.00,VWS V14.01,2013-03-02 11:38:00,
2013-03-02 06:40:00,31.6,24.6,29.74,NW,311,0.0,1.0,75,0.00,,---,0.00,7.00,VWS V14.01,2013-03-02 11:40:00,
2013-03-02 06:43:00,31.6,24.9,29.74,NW,311,0.0,0.0,76,0.00,,---,0.00,7.00,VWS V14.01,2013-03-02 11:43:00,
2013-03-02 06:45:00,31.5,24.8,29.74,NW,311,0.0,0.0,76,0.00,,---,0.00,9.00,VWS V14.01,2013-03-02 11:45:00,
2013-03-02 06:48:00,31.4,24.4,29.74,WSW,250,0.0,1.0,75,0.00,,---,0.00,9.00,VWS V14.01,2013-03-02 11:48:00,
2013-03-02 06:50:00,31.4,24.7,29.74,WSW,250,0.0,1.0,76,0.00,,---,0.00,11.00,VWS V14.01,2013-03-02 11:50:00,
2013-03-02 06:53:00,31.3,24.6,29.74,WSW,250,0.0,0.0,76,0.00,,---,0.00,11.00,VWS V14.01,2013-03-02 11:53:00,
2013-03-02 06:55:00,31.3,24.6,29.74,West,280,1.0,1.0,76,0.00,,---,0.00,11.00,VWS V14.01,2013-03-02 11:55:00,
2013-03-02 06:56:00,31.3,24.6,29.74,NW,323,0.0,2.0,76,0.00,,---,0.00,11.00,VWS V14.01,2013-03-02 11:56:00,
2013-03-02 06:58:00,31.2,24.5,29.74,NW,323,0.0,2.0,76,0.00,,---,0.00,11.00,VWS V14.01,2013-03-02 11:58:00,
2013-03-02 07:00:00,31.2,24.8,29.74,NW,323,0.0,2.0,77,0.00,,---,0.00,12.00,VWS V14.01,2013-03-02 12:00:00,
2013-03-02 07:01:00,31.2,24.8,29.74,NW,323,0.0,2.0,77,0.00,,---,0.00,12.00,VWS V14.01,2013-03-02 12:01:00,
2013-03-02 07:03:00,31.2,24.8,29.74,NW,323,0.0,0.0,77,0.00,,---,0.00,12.00,VWS V14.01,2013-03-02 12:03:00,
2013-03-02 07:05:00,31.1,24.8,29.74,NW,323,0.0,0.0,77,0.00,,---,0.00,12.00,VWS V14.01,2013-03-02 12:05:00,
2013-03-02 07:06:00,31.1,24.8,29.74,NW,323,0.0,0.0,77,0.00,,---,0.00,12.00,VWS V14.01,2013-03-02 12:06:00,
2013-03-02 07:08:00,31.1,24.8,29.74,NW,323,0.0,0.0,77,0.00,,---,0.00,12.00,VWS V14.01,2013-03-02 12:08:00,
2013-03-02 07:09:00,31.1,24.8,29.74,NW,323,0.0,0.0,77,0.00,,---,0.00,14.00,VWS V14.01,2013-03-02 12:09:00,
2013-03-02 07:10:00,31.0,24.6,29.74,NW,323,0.0,0.0,77,0.00,,---,0.00,14.00,VWS V14.01,2013-03-02 12:10:00,
2013-03-02 07:11:00,31.0,24.6,29.74,NW,323,0.0,0.0,77,0.00,,---,0.00,19.00,VWS V14.01,2013-03-02 12:11:00,
2013-03-02 07:13:00,31.0,25.0,29.74,NW,321,0.0,0.0,78,0.00,,---,0.00,30.00,VWS V14.01,2013-03-02 12:13:00,
2013-03-02 07:14:00,31.0,25.0,29.74,NW,321,0.0,0.0,78,0.00,,---,0.00,16.00,VWS V14.01,2013-03-02 12:14:00,
2013-03-02 07:15:00,31.0,24.6,29.74,NW,321,0.0,0.0,77,0.00,,---,0.00,26.00,VWS V14.01,2013-03-02 12:15:00,
2013-03-02 07:16:00,30.9,24.5,29.74,NW,321,0.0,0.0,77,0.00,,---,0.00,30.00,VWS V14.01,2013-03-02 12:16:00,
2013-03-02 07:18:00,30.9,24.5,29.74,SW,232,1.0,3.0,77,0.00,,---,0.00,35.00,VWS V14.01,2013-03-02 12:18:00,
2013-03-02 07:19:00,30.9,24.5,29.74,SW,232,0.0,3.0,77,0.00,,---,0.00,40.00,VWS V14.01,2013-03-02 12:19:00,
2013-03-02 07:20:00,30.9,24.5,29.74,SW,232,0.0,3.0,77,0.00,,---,0.00,54.00,VWS V14.01,2013-03-02 12:20:00,
2013-03-02 07:21:00,30.9,24.5,29.74,SW,232,0.0,3.0,77,0.00,,---,0.00,42.00,VWS V14.01,2013-03-02 12:21:00,
2013-03-02 07:23:00,30.9,24.5,29.74,SW,232,0.0,0.0,77,0.00,,---,0.00,26.00,VWS V14.01,2013-03-02 12:23:00,
2013-03-02 07:24:00,30.9,24.5,29.74,SW,232,0.0,0.0,77,0.00,,---,0.00,26.00,VWS V14.01,2013-03-02 12:24:00,
2013-03-02 07:25:00,30.9,24.9,29.74,SW,232,0.0,0.0,78,0.00,,---,0.00,35.00,VWS V14.01,2013-03-02 12:25:00,
2013-03-02 07:26:00,30.9,24.9,29.74,SW,232,0.0,0.0,78,0.00,,---,0.00,37.00,VWS V14.01,2013-03-02 12:26:00,
2013-03-02 07:28:00,30.9,24.9,29.74,SW,232,0.0,1.0,78,0.00,,---,0.00,51.00,VWS V14.01,2013-03-02 12:28:00,
2013-03-02 07:29:00,30.9,24.9,29.74,SW,232,0.0,1.0,78,0.00,,---,0.00,49.00,VWS V14.01,2013-03-02 12:29:00,
2013-03-02 07:30:00,31.0,25.0,29.74,SW,232,0.0,1.0,78,0.00,,---,0.00,32.00,VWS V14.01,2013-03-02 12:30:00,
2013-03-02 07:31:00,31.0,24.6,29.74,SW,234,0.0,1.0,77,0.00,,---,0.00,33.00,VWS V14.01,2013-03-02 12:31:00,
2013-03-02 07:33:00,31.0,25.0,29.74,West,273,0.0,2.0,78,0.00,,---,0.00,28.00,VWS V14.01,2013-03-02 12:33:00,
2013-03-02 07:34:00,31.0,25.0,29.74,West,273,0.0,2.0,78,0.00,,---,0.00,28.00,VWS V14.01,2013-03-02 12:34:00,
2013-03-02 07:35:00,31.2,24.5,29.74,West,273,0.0,2.0,76,0.00,,---,0.00,40.00,VWS V14.01,2013-03-02 12:35:00,
2013-03-02 07:36:00,31.4,25.0,29.74,WNW,296,0.0,2.0,77,0.00,,---,0.00,49.00,VWS V14.01,2013-03-02 12:36:00,
2013-03-02 07:38:00,31.6,24.9,29.74,WSW,254,0.0,2.0,76,0.00,,---,0.00,56.00,VWS V14.01,2013-03-02 12:38:00,
2013-03-02 07:39:00,31.7,25.0,29.74,WSW,254,0.0,2.0,76,0.00,,---,0.00,58.00,VWS V14.01,2013-03-02 12:39:00,
2013-03-02 07:40:00,31.8,25.1,29.74,WSW,254,0.0,2.0,76,0.00,,---,0.00,70.00,VWS V14.01,2013-03-02 12:40:00,
2013-03-02 07:42:00,31.9,25.2,29.74,WSW,254,0.0,2.0,76,0.00,,---,0.00,81.00,VWS V14.01,2013-03-02 12:42:00,
2013-03-02 07:44:00,32.0,25.0,29.74,WSW,254,0.0,0.0,75,0.00,,---,0.00,40.00,VWS V14.01,2013-03-02 12:44:00,
2013-03-02 07:45:00,32.0,25.3,29.74,WSW,254,0.0,0.0,76,0.00,,---,0.00,40.00,VWS V14.01,2013-03-02 12:45:00,
2013-03-02 07:46:00,32.1,25.4,29.74,WSW,254,0.0,0.0,76,0.00,,---,0.00,76.00,VWS V14.01,2013-03-02 12:46:00,
2013-03-02 07:47:00,32.1,25.4,29.74,WNW,298,0.0,2.0,76,0.00,,---,0.00,76.00,VWS V14.01,2013-03-02 12:47:00,
2013-03-02 07:49:00,32.3,24.6,29.74,WSW,237,1.0,2.0,73,0.00,,---,0.00,132.00,VWS V14.01,2013-03-02 12:49:00,
2013-03-02 07:50:00,32.3,24.6,29.74,NNE,22,0.0,2.0,73,0.00,,---,0.00,181.00,VWS V14.01,2013-03-02 12:50:00,
2013-03-02 07:51:00,32.4,24.7,29.74,NNE,22,0.0,2.0,73,0.00,,---,0.00,199.00,VWS V14.01,2013-03-02 12:51:00,
2013-03-02 07:52:00,32.5,24.8,29.74,NNE,22,0.0,2.0,73,0.00,,---,0.00,186.00,VWS V14.01,2013-03-02 12:52:00,
2013-03-02 07:54:00,32.6,24.9,29.74,North,350,0.0,2.0,73,0.00,,---,0.00,130.00,VWS V14.01,2013-03-02 12:54:00,
2013-03-02 07:55:00,32.7,24.7,29.74,NNW,344,0.0,3.0,72,0.00,,---,0.00,79.00,VWS V14.01,2013-03-02 12:55:00,
2013-03-02 07:56:00,32.8,24.8,29.74,NNW,344,0.0,3.0,72,0.00,,---,0.00,79.00,VWS V14.01,2013-03-02 12:56:00,
2013-03-02 07:57:00,32.8,24.8,29.74,NNW,344,0.0,3.0,72,0.00,,---,0.00,81.00,VWS V14.01,2013-03-02 12:57:00,
2013-03-02 07:59:00,32.9,24.9,29.74,NNW,344,0.0,3.0,72,0.00,,---,0.00,86.00,VWS V14.01,2013-03-02 12:59:00,
2013-03-02 08:00:00,32.9,24.5,29.74,NW,317,0.0,3.0,71,0.00,,---,0.00,98.00,VWS V14.01,2013-03-02 13:00:00,
2013-03-02 08:01:00,33.0,25.3,29.74,WNW,286,1.0,3.0,73,0.00,,---,0.00,130.00,VWS V14.01,2013-03-02 13:01:00,
2013-03-02 08:02:00,33.1,25.4,29.74,WNW,286,0.0,0.0,73,0.00,,---,0.00,114.00,VWS V14.01,2013-03-02 13:02:00,
2013-03-02 08:04:00,33.3,25.3,29.74,WNW,286,0.0,0.0,72,0.00,,---,0.00,97.00,VWS V14.01,2013-03-02 13:04:00,
2013-03-02 08:05:00,33.3,24.9,29.74,NW,313,1.0,2.0,71,0.00,,---,0.00,97.00,VWS V14.01,2013-03-02 13:05:00,
2013-03-02 08:06:00,33.3,24.9,29.74,NW,313,0.0,2.0,71,0.00,,---,0.00,100.00,VWS V14.01,2013-03-02 13:06:00,
2013-03-02 08:07:00,33.4,24.7,29.74,NW,313,0.0,2.0,70,0.00,,---,0.00,98.00,VWS V14.01,2013-03-02 13:07:00,
2013-03-02 08:09:00,33.5,25.1,29.74,NW,312,0.0,2.0,71,0.00,,---,0.00,97.00,VWS V14.01,2013-03-02 13:09:00,
2013-03-02 08:10:00,33.5,25.1,29.74,NW,312,0.0,2.0,71,0.00,,---,0.00,98.00,VWS V14.01,2013-03-02 13:10:00,
2013-03-02 08:11:00,33.4,24.7,29.74,NNW,338,2.0,2.0,70,0.00,,---,0.00,100.00,VWS V14.01,2013-03-02 13:11:00,
2013-03-02 08:12:00,33.4,24.7,29.74,North,360,0.0,2.0,70,0.00,,---,0.00,105.00,VWS V14.01,2013-03-02 13:12:00,
2013-03-02 08:15:00,33.4,25.0,29.74,WSW,241,2.0,3.0,71,0.00,,---,0.00,93.00,VWS V14.01,2013-03-02 13:15:00,
2013-03-02 08:16:00,33.4,24.7,29.74,WNW,299,0.0,3.0,70,0.00,,---,0.00,91.00,VWS V14.01,2013-03-02 13:16:00,
2013-03-02 08:18:00,33.4,25.0,29.74,WNW,299,0.0,3.0,71,0.00,,---,0.00,88.00,VWS V14.01,2013-03-02 13:18:00,
2013-03-02 08:20:00,33.3,24.9,29.74,WNW,298,0.0,3.0,71,0.00,,---,0.00,90.00,VWS V14.01,2013-03-02 13:20:00,
2013-03-02 08:21:00,33.3,24.6,29.74,WSW,244,0.0,3.0,70,0.00,,---,0.00,88.00,VWS V14.01,2013-03-02 13:21:00,
2013-03-02 08:23:00,33.2,24.5,29.74,WSW,244,0.0,0.0,70,0.00,,---,0.00,88.00,VWS V14.01,2013-03-02 13:23:00,
2013-03-02 08:25:00,33.2,24.8,29.74,WSW,244,0.0,1.0,71,0.00,,---,0.00,95.00,VWS V14.01,2013-03-02 13:25:00,
2013-03-02 08:26:00,33.2,24.5,29.74,North,355,2.0,2.0,70,0.00,,---,0.00,97.00,VWS V14.01,2013-03-02 13:26:00,
2013-03-02 08:28:00,33.2,24.5,29.74,North,355,0.0,2.0,70,0.00,,---,0.00,105.00,VWS V14.01,2013-03-02 13:28:00,
2013-03-02 08:30:00,33.3,24.6,29.74,North,355,0.0,2.0,70,0.00,,---,0.00,123.00,VWS V14.01,2013-03-02 13:30:00,
2013-03-02 08:31:00,33.3,24.6,29.74,NNW,342,0.0,3.0,70,0.00,,---,0.00,118.00,VWS V14.01,2013-03-02 13:31:00,
2013-03-02 08:33:00,33.3,24.6,29.74,NNW,339,1.0,2.0,70,0.00,,---,0.00,107.00,VWS V14.01,2013-03-02 13:33:00,
2013-03-02 08:35:00,33.4,24.7,29.74,NNW,339,1.0,3.0,70,0.00,,---,0.00,109.00,VWS V14.01,2013-03-02 13:35:00,
2013-03-02 08:36:00,33.3,24.2,29.74,NNW,339,0.0,3.0,69,0.00,,---,0.00,111.00,VWS V14.01,2013-03-02 13:36:00,
2013-03-02 08:37:00,33.3,24.2,29.74,NNW,348,0.0,3.0,69,0.00,,---,0.00,114.00,VWS V14.01,2013-03-02 13:37:00,
2013-03-02 08:38:00,33.4,25.0,29.74,North,355,0.0,3.0,71,0.00,,---,0.00,127.00,VWS V14.01,2013-03-02 13:38:00,
2013-03-02 08:40:00,33.4,24.7,29.74,North,355,0.0,3.0,70,0.00,,---,0.00,134.00,VWS V14.01,2013-03-02 13:40:00,
2013-03-02 08:41:00,33.4,24.7,29.74,North,355,0.0,3.0,70,0.00,,---,0.00,137.00,VWS V14.01,2013-03-02 13:41:00,
2013-03-02 08:42:00,33.6,24.9,29.74,SSW,206,0.0,1.0,70,0.00,,---,0.00,139.00,VWS V14.01,2013-03-02 13:42:00,
2013-03-02 08:43:00,33.6,24.5,29.74,SW,219,0.0,3.0,69,0.00,,---,0.00,142.00,VWS V14.01,2013-03-02 13:43:00,
2013-03-02 08:45:00,33.8,24.7,29.74,WSW,237,0.0,3.0,69,0.00,,---,0.00,134.00,VWS V14.01,2013-03-02 13:45:00,
2013-03-02 08:46:00,33.8,24.7,29.74,NW,316,0.0,3.0,69,0.00,,---,0.00,130.00,VWS V14.01,2013-03-02 13:46:00,
2013-03-02 08:47:00,33.8,24.7,29.74,NW,316,0.0,3.0,69,0.00,,---,0.00,128.00,VWS V14.01,2013-03-02 13:47:00,
2013-03-02 08:48:00,33.8,24.7,29.74,NW,316,0.0,3.0,69,0.00,,---,0.00,121.00,VWS V14.01,2013-03-02 13:48:00,
2013-03-02 08:50:00,33.9,25.2,29.74,WSW,244,2.0,3.0,70,0.00,,---,0.00,114.00,VWS V14.01,2013-03-02 13:50:00,
2013-03-02 08:51:00,33.9,24.8,29.74,NW,317,0.0,3.0,69,0.00,,---,0.00,114.00,VWS V14.01,2013-03-02 13:51:00,
2013-03-02 08:52:00,33.9,24.8,29.74,NW,317,1.0,1.0,69,0.00,,---,0.00,118.00,VWS V14.01,2013-03-02 13:52:00,
2013-03-02 08:53:00,33.9,24.5,29.74,NNW,342,0.0,3.0,68,0.00,,---,0.00,132.00,VWS V14.01,2013-03-02 13:53:00,
2013-03-02 08:55:00,33.9,24.8,29.74,NNW,342,0.0,3.0,69,0.00,,---,0.00,132.00,VWS V14.01,2013-03-02 13:55:00,
2013-03-02 08:56:00,33.9,24.8,29.74,NNW,342,0.0,3.0,69,0.00,,---,0.00,134.00,VWS V14.01,2013-03-02 13:56:00,
2013-03-02 08:57:00,33.9,25.2,29.74,West,265,0.0,3.0,70,0.00,,---,0.00,137.00,VWS V14.01,2013-03-02 13:57:00,
2013-03-02 08:58:00,34.0,24.9,29.74,West,265,1.0,3.0,69,0.00,,---,0.00,139.00,VWS V14.01,2013-03-02 13:58:00,
2013-03-02 09:00:00,33.9,24.8,29.74,WSW,248,1.0,3.0,69,0.00,,---,0.00,137.00,VWS V14.01,2013-03-02 14:00:00,
2013-03-02 09:01:00,34.0,24.9,29.74,WNW,292,0.0,3.0,69,0.00,,---,0.00,141.00,VWS V14.01,2013-03-02 14:01:00,
2013-03-02 09:02:00,34.0,24.9,29.74,NNW,346,0.0,1.0,69,0.00,,---,0.00,148.00,VWS V14.01,2013-03-02 14:02:00,
2013-03-02 09:04:00,34.0,24.9,29.74,NE,49,0.0,3.0,69,0.00,,---,0.00,160.00,VWS V14.01,2013-03-02 14:04:00,
2013-03-02 09:05:00,34.0,24.9,29.74,ENE,78,0.0,3.0,69,0.00,,---,0.00,188.00,VWS V14.01,2013-03-02 14:05:00,
2013-03-02 09:06:00,34.0,24.6,29.74,NNW,346,2.0,3.0,68,0.00,,---,0.00,197.00,VWS V14.01,2013-03-02 14:06:00,
2013-03-02 09:07:00,34.0,24.2,29.73,NNE,32,1.0,3.0,67,0.00,,---,0.00,227.00,VWS V14.01,2013-03-02 14:07:00,
2013-03-02 09:09:00,34.0,24.6,29.73,NNE,29,1.0,3.0,68,0.00,,---,0.00,304.00,VWS V14.01,2013-03-02 14:09:00,
2013-03-02 09:10:00,34.1,24.3,29.73,NNE,28,0.0,3.0,67,0.00,,---,0.00,281.00,VWS V14.01,2013-03-02 14:10:00,
2013-03-02 09:12:00,34.2,24.8,29.73,NW,313,1.0,3.0,68,0.00,,---,0.00,264.00,VWS V14.01,2013-03-02 14:12:00,
2013-03-02 09:14:00,34.5,24.7,29.73,SW,222,1.0,2.0,67,0.00,,---,0.00,257.00,VWS V14.01,2013-03-02 14:14:00,
2013-03-02 09:16:00,34.6,24.8,29.73,NNW,346,1.0,3.0,67,0.00,,---,0.00,390.00,VWS V14.01,2013-03-02 14:16:00,
2013-03-02 09:17:00,34.8,25.0,29.73,SW,219,0.0,3.0,67,0.00,,---,0.00,396.00,VWS V14.01,2013-03-02 14:17:00,
2013-03-02 09:19:00,35.0,25.2,29.73,WNW,290,0.0,5.0,67,0.00,,---,0.00,269.00,VWS V14.01,2013-03-02 14:19:00,
2013-03-02 09:21:00,35.1,25.6,29.73,NW,304,0.0,5.0,68,0.00,,---,0.00,339.00,VWS V14.01,2013-03-02 14:21:00,
2013-03-02 09:22:00,35.2,25.0,29.73,NW,304,1.0,1.0,66,0.00,,---,0.00,424.00,VWS V14.01,2013-03-02 14:22:00,
2013-03-02 09:25:00,35.7,25.8,29.73,SW,228,2.0,3.0,67,0.00,,---,0.00,424.00,VWS V14.01,2013-03-02 14:25:00,
2013-03-02 09:26:00,35.7,25.8,29.73,SSE,147,1.0,3.0,67,0.00,,---,0.00,424.00,VWS V14.01,2013-03-02 14:26:00,
2013-03-02 09:27:00,35.6,25.4,29.73,SW,234,0.0,3.0,66,0.00,,---,0.00,302.00,VWS V14.01,2013-03-02 14:27:00,
2013-03-02 09:30:00,35.4,25.2,29.73,NNW,344,4.0,4.0,66,0.00,,---,0.00,202.00,VWS V14.01,2013-03-02 14:30:00,
2013-03-02 09:31:00,35.3,24.7,29.73,West,259,1.0,4.0,65,0.00,,---,0.00,265.00,VWS V14.01,2013-03-02 14:31:00,
2013-03-02 09:32:00,35.2,25.0,29.72,West,280,0.0,0.0,66,0.00,,---,0.00,178.00,VWS V14.01,2013-03-02 14:32:00,
2013-03-02 09:35:00,35.0,24.8,29.73,ENE,61,2.0,4.0,66,0.00,,---,0.00,179.00,VWS V14.01,2013-03-02 14:35:00,
2013-03-02 09:36:00,34.9,24.7,29.72,North,349,3.0,4.0,66,0.00,,---,0.00,162.00,VWS V14.01,2013-03-02 14:36:00,
2013-03-02 09:37:00,34.9,24.7,29.72,North,350,1.0,4.0,66,0.00,,---,0.00,149.00,VWS V14.01,2013-03-02 14:37:00,
2013-03-02 09:38:00,34.8,24.6,29.72,North,350,1.0,4.0,66,0.00,,---,0.00,141.00,VWS V14.01,2013-03-02 14:38:00,
2013-03-02 09:40:00,34.8,25.0,29.72,NNW,346,1.0,4.0,67,0.00,,---,0.00,192.00,VWS V14.01,2013-03-02 14:40:00,
2013-03-02 09:41:00,34.8,25.0,29.73,WNW,292,1.0,4.0,67,0.00,,---,0.00,216.00,VWS V14.01,2013-03-02 14:41:00,
2013-03-02 09:42:00,34.9,25.1,29.72,SW,234,0.0,1.0,67,0.00,,---,0.00,285.00,VWS V14.01,2013-03-02 14:42:00,
2013-03-02 09:43:00,34.9,25.1,29.72,SW,234,0.0,1.0,67,0.00,,---,0.00,204.00,VWS V14.01,2013-03-02 14:43:00,
2013-03-02 09:45:00,35.1,25.3,29.72,NW,325,0.0,1.0,67,0.00,,---,0.00,163.00,VWS V14.01,2013-03-02 14:45:00,
2013-03-02 09:46:00,35.3,25.5,29.72,West,279,0.0,1.0,67,0.00,,---,0.00,156.00,VWS V14.01,2013-03-02 14:46:00,
2013-03-02 09:47:00,35.3,25.1,29.72,North,355,0.0,2.0,66,0.00,,---,0.00,148.00,VWS V14.01,2013-03-02 14:47:00,
2013-03-02 09:48:00,35.2,24.6,29.72,NNW,329,1.0,2.0,65,0.00,,---,0.00,141.00,VWS V14.01,2013-03-02 14:48:00,
2013-03-02 09:50:00,35.1,24.5,29.72,NNW,340,0.0,3.0,65,0.00,,---,0.00,135.00,VWS V14.01,2013-03-02 14:50:00,
2013-03-02 09:52:00,35.0,25.2,29.72,North,5,2.0,3.0,67,0.00,,---,0.00,144.00,VWS V14.01,2013-03-02 14:52:00,
2013-03-02 09:53:00,35.0,25.2,29.72,NE,46,1.0,2.0,67,0.00,,---,0.00,149.00,VWS V14.01,2013-03-02 14:53:00,
2013-03-02 09:56:00,34.9,24.7,29.72,NNW,337,0.0,4.0,66,0.00,,---,0.00,135.00,VWS V14.01,2013-03-02 14:56:00,
2013-03-02 09:57:00,34.9,24.7,29.72,NNW,339,0.0,4.0,66,0.00,,---,0.00,134.00,VWS V14.01,2013-03-02 14:57:00,
2013-03-02 09:58:00,34.9,24.7,29.72,NW,321,0.0,4.0,66,0.00,,---,0.00,135.00,VWS V14.01,2013-03-02 14:58:00,
2013-03-02 10:01:00,34.8,25.0,29.72,NW,325,0.0,4.0,67,0.00,,---,0.00,134.00,VWS V14.01,2013-03-02 15:01:00,
2013-03-02 10:02:00,34.8,24.6,29.72,WNW,299,0.0,4.0,66,0.00,,---,0.00,135.00,VWS V14.01,2013-03-02 15:02:00,
2013-03-02 10:03:00,34.8,24.6,29.72,WNW,290,1.0,1.0,66,0.00,,---,0.00,141.00,VWS V14.01,2013-03-02 15:03:00,
2013-03-02 10:06:00,34.8,25.0,29.72,NNW,346,0.0,3.0,67,0.00,,---,0.00,153.00,VWS V14.01,2013-03-02 15:06:00,
2013-03-02 10:07:00,34.7,24.1,29.72,NNW,348,0.0,4.0,65,0.00,,---,0.00,144.00,VWS V14.01,2013-03-02 15:07:00,
2013-03-02 10:08:00,34.6,24.4,29.72,NNW,348,0.0,4.0,66,0.00,,---,0.00,135.00,VWS V14.01,2013-03-02 15:08:00,
2013-03-02 10:11:00,34.7,24.9,29.72,NNE,26,0.0,4.0,67,0.00,,---,0.00,120.00,VWS V14.01,2013-03-02 15:11:00,
2013-03-02 10:12:00,34.8,25.0,29.72,NNE,26,0.0,0.0,67,0.00,,---,0.00,121.00,VWS V14.01,2013-03-02 15:12:00,
2013-03-02 10:13:00,34.8,24.6,29.72,NNE,26,0.0,0.0,66,0.00,,---,0.00,128.00,VWS V14.01,2013-03-02 15:13:00,
2013-03-02 10:16:00,35.0,25.5,29.72,ENE,75,0.0,2.0,68,0.00,,---,0.00,155.00,VWS V14.01,2013-03-02 15:16:00,
2013-03-02 10:17:00,35.1,25.6,29.72,NE,35,0.0,2.0,68,0.00,,---,0.00,151.00,VWS V14.01,2013-03-02 15:17:00,
2013-03-02 10:18:00,35.2,25.7,29.72,NE,35,0.0,2.0,68,0.00,,---,0.00,141.00,VWS V14.01,2013-03-02 15:18:00,
2013-03-02 10:21:00,35.2,25.4,29.73,North,5,3.0,3.0,67,0.00,,---,0.00,123.00,VWS V14.01,2013-03-02 15:21:00,
2013-03-02 10:22:00,35.1,24.9,29.73,NNW,332,1.0,2.0,66,0.00,,---,0.00,123.00,VWS V14.01,2013-03-02 15:22:00,
2013-03-02 10:23:00,35.1,24.9,29.73,NW,314,1.0,2.0,66,0.00,,---,0.00,125.00,VWS V14.01,2013-03-02 15:23:00,
2013-03-02 10:26:00,35.0,24.8,29.72,NW,314,0.0,2.0,66,0.00,,---,0.00,141.00,VWS V14.01,2013-03-02 15:26:00,
2013-03-02 10:27:00,35.0,24.8,29.73,North,355,0.0,2.0,66,0.00,,---,0.00,160.00,VWS V14.01,2013-03-02 15:27:00,
2013-03-02 10:28:00,35.0,25.2,29.72,North,355,0.0,2.0,67,0.00,,---,0.00,160.00,VWS V14.01,2013-03-02 15:28:00,
2013-03-02 10:29:00,35.0,25.2,29.72,North,355,0.0,2.0,67,0.00,,---,0.00,160.00,VWS V14.01,2013-03-02 15:29:00,
2013-03-02 10:31:00,35.0,24.8,29.72,North,355,0.0,3.0,66,0.00,,---,0.00,142.00,VWS V14.01,2013-03-02 15:31:00,
2013-03-02 10:33:00,35.1,25.3,29.73,North,355,0.0,0.0,67,0.00,,---,0.00,139.00,VWS V14.01,2013-03-02 15:33:00,
2013-03-02 10:34:00,35.1,24.9,29.73,North,5,2.0,4.0,66,0.00,,---,0.00,151.00,VWS V14.01,2013-03-02 15:34:00,
2013-03-02 10:36:00,35.1,25.3,29.72,ENE,57,0.0,4.0,67,0.00,,---,0.00,174.00,VWS V14.01,2013-03-02 15:36:00,
2013-03-02 10:38:00,35.0,24.4,29.72,NE,42,0.0,4.0,65,0.00,,---,0.00,190.00,VWS V14.01,2013-03-02 15:38:00,
2013-03-02 10:39:00,35.1,25.3,29.72,WSW,251,1.0,4.0,67,0.00,,---,0.00,193.00,VWS V14.01,2013-03-02 15:39:00,
2013-03-02 10:41:00,35.2,25.4,29.72,NW,308,2.0,4.0,67,0.00,,---,0.00,169.00,VWS V14.01,2013-03-02 15:41:00,
2013-03-02 10:43:00,35.2,25.0,29.72,North,355,0.0,3.0,66,0.00,,---,0.00,165.00,VWS V14.01,2013-03-02 15:43:00,
2013-03-02 10:44:00,35.2,25.0,29.72,North,355,0.0,3.0,66,0.00,,---,0.00,169.00,VWS V14.01,2013-03-02 15:44:00,
2013-03-02 10:46:00,35.4,25.5,29.72,West,269,1.0,3.0,67,0.00,,---,0.00,181.00,VWS V14.01,2013-03-02 15:46:00,
2013-03-02 10:48:00,35.4,25.2,29.72,North,355,1.0,3.0,66,0.00,,---,0.00,179.00,VWS V14.01,2013-03-02 15:48:00,
2013-03-02 10:49:00,35.5,25.6,29.72,North,355,0.0,3.0,67,0.00,,---,0.00,179.00,VWS V14.01,2013-03-02 15:49:00,
2013-03-02 10:51:00,35.6,25.4,29.72,NNE,31,0.0,3.0,66,0.00,,---,0.00,174.00,VWS V14.01,2013-03-02 15:51:00,
2013-03-02 10:53:00,35.6,25.4,29.72,NNW,334,0.0,1.0,66,0.00,,---,0.00,186.00,VWS V14.01,2013-03-02 15:53:00,
2013-03-02 10:54:00,35.7,25.5,29.72,East,101,0.0,5.0,66,0.00,,---,0.00,192.00,VWS V14.01,2013-03-02 15:54:00,
2013-03-02 10:56:00,35.8,25.6,29.72,NNW,340,0.0,5.0,66,0.00,,---,0.00,234.00,VWS V14.01,2013-03-02 15:56:00,
2013-03-02 10:58:00,35.9,25.3,29.71,North,355,2.0,5.0,65,0.00,,---,0.00,218.00,VWS V14.01,2013-03-02 15:58:00,
2013-03-02 10:59:00,35.8,25.2,29.71,WSW,256,1.0,5.0,65,0.00,,---,0.00,207.00,VWS V14.01,2013-03-02 15:59:00,
2013-03-02 11:01:00,36.0,25.8,29.71,NNE,15,1.0,5.0,66,0.00,,---,0.00,223.00,VWS V14.01,2013-03-02 16:01:00,
2013-03-02 11:03:00,36.0,25.8,29.71,NNE,15,0.0,0.0,66,0.00,,---,0.00,234.00,VWS V14.01,2013-03-02 16:03:00,
2013-03-02 11:04:00,36.0,25.4,29.72,SW,222,1.0,2.0,65,0.00,,---,0.00,232.00,VWS V14.01,2013-03-02 16:04:00,
2013-03-02 11:06:00,36.0,25.4,29.71,SW,227,0.0,2.0,65,0.00,,---,0.00,225.00,VWS V14.01,2013-03-02 16:06:00,
2013-03-02 11:08:00,36.1,25.5,29.71,NNW,336,0.0,5.0,65,0.00,,---,0.00,216.00,VWS V14.01,2013-03-02 16:08:00,
2013-03-02 11:09:00,36.1,25.1,29.71,SW,227,2.0,5.0,64,0.00,,---,0.00,209.00,VWS V14.01,2013-03-02 16:09:00,
2013-03-02 11:11:00,36.2,26.0,29.71,NW,316,1.0,5.0,66,0.00,,---,0.00,190.00,VWS V14.01,2013-03-02 16:11:00,
2013-03-02 11:13:00,36.4,26.1,29.72,SW,234,2.0,3.0,66,0.00,,---,0.00,178.00,VWS V14.01,2013-03-02 16:13:00,
2013-03-02 11:14:00,36.4,25.8,29.72,WSW,242,1.0,3.0,65,0.00,,---,0.00,179.00,VWS V14.01,2013-03-02 16:14:00,
2013-03-02 11:16:00,36.4,25.4,29.72,NNW,345,0.0,3.0,64,0.00,,---,0.00,193.00,VWS V14.01,2013-03-02 16:16:00,
2013-03-02 11:18:00,36.2,25.2,29.72,SW,227,1.0,3.0,64,0.00,,---,0.00,183.00,VWS V14.01,2013-03-02 16:18:00,
2013-03-02 11:19:00,36.1,25.1,29.72,North,351,3.0,3.0,64,0.00,,---,0.00,185.00,VWS V14.01,2013-03-02 16:19:00,
2013-03-02 11:22:00,35.9,24.9,29.71,North,360,2.0,3.0,64,0.00,,---,0.00,186.00,VWS V14.01,2013-03-02 16:22:00,
2013-03-02 11:23:00,35.9,25.3,29.71,NNE,28,2.0,4.0,65,0.00,,---,0.00,171.00,VWS V14.01,2013-03-02 16:23:00,
2013-03-02 11:24:00,35.9,25.3,29.71,North,360,0.0,4.0,65,0.00,,---,0.00,158.00,VWS V14.01,2013-03-02 16:24:00,
2013-03-02 11:25:00,35.9,25.3,29.71,North,360,0.0,4.0,65,0.00,,---,0.00,158.00,VWS V14.01,2013-03-02 16:25:00,
2013-03-02 11:27:00,36.0,26.1,29.71,NW,312,0.0,4.0,67,0.00,,---,0.00,178.00,VWS V14.01,2013-03-02 16:27:00,
2013-03-02 11:28:00,36.0,25.4,29.71,North,349,0.0,4.0,65,0.00,,---,0.00,200.00,VWS V14.01,2013-03-02 16:28:00,
2013-03-02 11:30:00,36.2,26.0,29.71,North,349,0.0,4.0,66,0.00,,---,0.00,200.00,VWS V14.01,2013-03-02 16:30:00,
2013-03-02 11:32:00,36.1,25.1,29.71,SW,225,2.0,4.0,64,0.00,,---,0.00,193.00,VWS V14.01,2013-03-02 16:32:00,
2013-03-02 11:34:00,36.0,25.0,29.71,NNE,27,0.0,4.0,64,0.00,,---,0.00,192.00,VWS V14.01,2013-03-02 16:34:00,
2013-03-02 11:35:00,35.9,25.3,29.71,SSW,205,1.0,4.0,65,0.00,,---,0.00,193.00,VWS V14.01,2013-03-02 16:35:00,
2013-03-02 11:37:00,35.8,24.8,29.71,ENE,69,0.0,4.0,64,0.00,,---,0.00,183.00,VWS V14.01,2013-03-02 16:37:00,
2013-03-02 11:39:00,35.7,25.1,29.71,North,5,3.0,4.0,65,0.00,,---,0.00,165.00,VWS V14.01,2013-03-02 16:39:00,
2013-03-02 11:40:00,35.7,25.1,29.71,North,355,0.0,4.0,65,0.00,,---,0.00,167.00,VWS V14.01,2013-03-02 16:40:00,
2013-03-02 11:42:00,35.7,25.5,29.71,NNW,327,1.0,4.0,66,0.00,,---,0.00,165.00,VWS V14.01,2013-03-02 16:42:00,
2013-03-02 11:44:00,35.9,25.7,29.71,WSW,239,3.0,3.0,66,0.00,,---,0.00,190.00,VWS V14.01,2013-03-02 16:44:00,
2013-03-02 11:45:00,36.0,26.1,29.71,WNW,302,0.0,3.0,67,0.00,,---,0.00,193.00,VWS V14.01,2013-03-02 16:45:00,
2013-03-02 11:47:00,36.1,25.5,29.71,NNW,340,2.0,3.0,65,0.00,,---,0.00,195.00,VWS V14.01,2013-03-02 16:47:00,
2013-03-02 11:49:00,36.2,25.6,29.71,West,261,1.0,3.0,65,0.00,,---,0.00,181.00,VWS V14.01,2013-03-02 16:49:00,
2013-03-02 11:50:00,36.2,26.0,29.71,West,261,0.0,3.0,66,0.00,,---,0.00,183.00,VWS V14.01,2013-03-02 16:50:00,
2013-03-02 11:52:00,36.3,25.7,29.71,WNW,298,0.0,0.0,65,0.00,,---,0.00,174.00,VWS V14.01,2013-03-02 16:52:00,
2013-03-02 11:54:00,36.4,26.1,29.71,NNW,342,1.0,5.0,66,0.00,,---,0.00,227.00,VWS V14.01,2013-03-02 16:54:00,
2013-03-02 11:55:00,36.4,25.8,29.71,NNW,335,0.0,5.0,65,0.00,,---,0.00,227.00,VWS V14.01,2013-03-02 16:55:00,
2013-03-02 11:57:00,36.3,25.3,29.70,WSW,239,1.0,5.0,64,0.00,,---,0.00,223.00,VWS V14.01,2013-03-02 16:57:00,
2013-03-02 11:59:00,36.6,25.6,29.70,NNW,343,1.0,5.0,64,0.00,,---,0.00,195.00,VWS V14.01,2013-03-02 16:59:00,
2013-03-02 12:00:00,36.7,26.1,29.70,NNW,343,0.0,5.0,65,0.00,,---,0.00,195.00,VWS V14.01,2013-03-02 17:00:00,
2013-03-02 12:02:00,37.1,26.8,29.70,NNW,343,0.0,0.0,66,0.00,,---,0.00,225.00,VWS V14.01,2013-03-02 17:02:00,
2013-03-02 12:05:00,37.5,26.8,29.70,West,259,1.0,7.0,65,0.00,,---,0.00,264.00,VWS V14.01,2013-03-02 17:05:00,
2013-03-02 12:07:00,37.7,27.4,29.70,NNW,341,1.0,7.0,66,0.00,,---,0.00,181.00,VWS V14.01,2013-03-02 17:07:00,
2013-03-02 12:10:00,37.7,26.6,29.70,NNW,344,0.0,7.0,64,0.00,,---,0.00,230.00,VWS V14.01,2013-03-02 17:10:00,
2013-03-02 12:12:00,37.5,26.1,29.70,NW,321,2.0,3.0,63,0.00,,---,0.00,199.00,VWS V14.01,2013-03-02 17:12:00,
2013-03-02 12:15:00,37.6,26.5,29.70,NNW,343,0.0,3.0,64,0.00,,---,0.00,183.00,VWS V14.01,2013-03-02 17:15:00,
2013-03-02 12:16:00,37.6,26.2,29.70,NNW,343,1.0,3.0,63,0.00,,---,0.00,199.00,VWS V14.01,2013-03-02 17:16:00,
2013-03-02 12:17:00,37.7,27.0,29.70,NNW,344,0.0,3.0,65,0.00,,---,0.00,195.00,VWS V14.01,2013-03-02 17:17:00,
2013-03-02 12:20:00,37.6,26.2,29.70,NNW,338,0.0,5.0,63,0.00,,---,0.00,211.00,VWS V14.01,2013-03-02 17:20:00,
2013-03-02 12:21:00,37.7,26.3,29.70,SSW,194,1.0,5.0,63,0.00,,---,0.00,195.00,VWS V14.01,2013-03-02 17:21:00,
2013-03-02 12:22:00,37.5,25.7,29.70,NW,325,2.0,2.0,62,0.00,,---,0.00,214.00,VWS V14.01,2013-03-02 17:22:00,
2013-03-02 12:25:00,37.3,25.5,29.70,WSW,242,0.0,2.0,62,0.00,,---,0.00,209.00,VWS V14.01,2013-03-02 17:25:00,
2013-03-02 12:26:00,37.3,25.9,29.69,WSW,240,3.0,5.0,63,0.00,,---,0.00,220.00,VWS V14.01,2013-03-02 17:26:00,
2013-03-02 12:27:00,37.2,26.2,29.69,WSW,254,0.0,5.0,64,0.00,,---,0.00,211.00,VWS V14.01,2013-03-02 17:27:00,
2013-03-02 12:30:00,37.2,25.8,29.70,NNW,337,0.0,5.0,63,0.00,,---,0.00,195.00,VWS V14.01,2013-03-02 17:30:00,
2013-03-02 12:31:00,37.2,25.8,29.69,SW,221,2.0,5.0,63,0.00,,---,0.00,220.00,VWS V14.01,2013-03-02 17:31:00,
2013-03-02 12:32:00,37.2,26.2,29.69,NE,51,0.0,2.0,64,0.00,,---,0.00,216.00,VWS V14.01,2013-03-02 17:32:00,
2013-03-02 12:35:00,37.5,26.1,29.69,NE,55,0.0,2.0,63,0.00,,---,0.00,211.00,VWS V14.01,2013-03-02 17:35:00,
2013-03-02 12:36:00,37.4,25.6,29.69,NNW,344,0.0,3.0,62,0.00,,---,0.00,204.00,VWS V14.01,2013-03-02 17:36:00,
2013-03-02 12:37:00,37.5,26.1,29.69,NNE,25,0.0,3.0,63,0.00,,---,0.00,195.00,VWS V14.01,2013-03-02 17:37:00,
2013-03-02 12:40:00,37.5,26.1,29.69,ENE,61,0.0,4.0,63,0.00,,---,0.00,176.00,VWS V14.01,2013-03-02 17:40:00,
2013-03-02 12:41:00,37.6,26.2,29.69,NNE,26,0.0,4.0,63,0.00,,---,0.00,179.00,VWS V14.01,2013-03-02 17:41:00,
2013-03-02 12:43:00,37.6,26.2,29.69,NNE,26,0.0,0.0,63,0.00,,---,0.00,176.00,VWS V14.01,2013-03-02 17:43:00,
2013-03-02 12:45:00,37.8,26.4,29.69,NNW,342,3.0,3.0,63,0.00,,---,0.00,163.00,VWS V14.01,2013-03-02 17:45:00,
2013-03-02 12:46:00,37.8,26.0,29.70,NW,322,0.0,3.0,62,0.00,,---,0.00,169.00,VWS V14.01,2013-03-02 17:46:00,
2013-03-02 12:48:00,37.7,25.9,29.69,SW,224,0.0,6.0,62,0.00,,---,0.00,158.00,VWS V14.01,2013-03-02 17:48:00,
2013-03-02 12:50:00,37.3,25.5,29.69,North,350,0.0,6.0,62,0.00,,---,0.00,148.00,VWS V14.01,2013-03-02 17:50:00,
2013-03-02 12:51:00,37.2,25.0,29.69,NW,319,0.0,6.0,61,0.00,,---,0.00,141.00,VWS V14.01,2013-03-02 17:51:00,
2013-03-02 12:52:00,37.2,25.0,29.69,West,271,1.0,6.0,61,0.00,,---,0.00,139.00,VWS V14.01,2013-03-02 17:52:00,
2013-03-02 12:53:00,37.2,25.8,29.69,West,271,0.0,1.0,63,0.00,,---,0.00,144.00,VWS V14.01,2013-03-02 17:53:00,
2013-03-02 12:55:00,37.1,25.7,29.69,North,5,1.0,5.0,63,0.00,,---,0.00,148.00,VWS V14.01,2013-03-02 17:55:00,
2013-03-02 12:56:00,37.2,25.8,29.69,WSW,241,3.0,5.0,63,0.00,,---,0.00,155.00,VWS V14.01,2013-03-02 17:56:00,
2013-03-02 12:57:00,37.1,25.7,29.69,NNW,328,1.0,5.0,63,0.00,,---,0.00,151.00,VWS V14.01,2013-03-02 17:57:00,
2013-03-02 12:58:00,37.2,25.4,29.69,North,5,1.0,5.0,62,0.00,,---,0.00,146.00,VWS V14.01,2013-03-02 17:58:00,
2013-03-02 13:00:00,37.3,25.9,29.69,NNW,333,2.0,5.0,63,0.00,,---,0.00,144.00,VWS V14.01,2013-03-02 18:00:00,
2013-03-02 13:01:00,37.2,25.4,29.69,WNW,300,0.0,5.0,62,0.00,,---,0.00,153.00,VWS V14.01,2013-03-02 18:01:00,
2013-03-02 13:02:00,37.2,25.4,29.69,WSW,246,1.0,1.0,62,0.00,,---,0.00,156.00,VWS V14.01,2013-03-02 18:02:00,
2013-03-02 13:03:00,37.2,25.8,29.69,SW,215,1.0,2.0,63,0.00,,---,0.00,149.00,VWS V14.01,2013-03-02 18:03:00,
2013-03-02 13:05:00,37.2,25.8,29.69,WNW,288,0.0,3.0,63,0.00,,---,0.00,135.00,VWS V14.01,2013-03-02 18:05:00,
2013-03-02 13:06:00,37.2,26.2,29.69,NNW,345,1.0,3.0,64,0.00,,---,0.00,137.00,VWS V14.01,2013-03-02 18:06:00,
2013-03-02 13:07:00,37.2,25.8,29.69,NNW,345,1.0,3.0,63,0.00,,---,0.00,135.00,VWS V14.01,2013-03-02 18:07:00,
2013-03-02 13:08:00,37.2,25.8,29.69,NNW,345,0.0,3.0,63,0.00,,---,0.00,135.00,VWS V14.01,2013-03-02 18:08:00,
2013-03-02 13:11:00,37.1,25.3,29.69,NNW,333,0.0,3.0,62,0.00,,---,0.00,132.00,VWS V14.01,2013-03-02 18:11:00,
2013-03-02 13:12:00,37.0,25.2,29.69,North,5,2.0,2.0,62,0.00,,---,0.00,125.00,VWS V14.01,2013-03-02 18:12:00,
2013-03-02 13:13:00,37.0,25.2,29.69,North,5,0.0,2.0,62,0.00,,---,0.00,120.00,VWS V14.01,2013-03-02 18:13:00,
2013-03-02 13:16:00,37.0,26.0,29.69,West,265,0.0,2.0,64,0.00,,---,0.00,125.00,VWS V14.01,2013-03-02 18:16:00,
2013-03-02 13:17:00,37.1,26.1,29.68,WSW,253,1.0,2.0,64,0.00,,---,0.00,142.00,VWS V14.01,2013-03-02 18:17:00,
2013-03-02 13:18:00,37.2,26.2,29.69,West,271,0.0,2.0,64,0.00,,---,0.00,156.00,VWS V14.01,2013-03-02 18:18:00,
2013-03-02 13:21:00,37.3,25.5,29.69,NW,317,0.0,2.0,62,0.00,,---,0.00,153.00,VWS V14.01,2013-03-02 18:21:00,
2013-03-02 13:23:00,37.3,25.9,29.68,WNW,288,0.0,1.0,63,0.00,,---,0.00,134.00,VWS V14.01,2013-03-02 18:23:00,
2013-03-02 13:26:00,37.5,26.1,29.69,NW,321,0.0,1.0,63,0.00,,---,0.00,132.00,VWS V14.01,2013-03-02 18:26:00,
2013-03-02 13:28:00,37.5,26.1,29.69,ENE,69,1.0,3.0,63,0.00,,---,0.00,141.00,VWS V14.01,2013-03-02 18:28:00,
2013-03-02 13:31:00,37.5,25.7,29.69,North,11,2.0,3.0,62,0.00,,---,0.00,153.00,VWS V14.01,2013-03-02 18:31:00,
2013-03-02 13:33:00,37.4,25.2,29.69,SW,225,0.0,1.0,61,0.00,,---,0.00,149.00,VWS V14.01,2013-03-02 18:33:00,
2013-03-02 13:36:00,37.4,26.0,29.68,SW,220,0.0,4.0,63,0.00,,---,0.00,151.00,VWS V14.01,2013-03-02 18:36:00,
2013-03-02 13:37:00,37.4,25.6,29.68,SW,220,0.0,4.0,62,0.00,,---,0.00,148.00,VWS V14.01,2013-03-02 18:37:00,
2013-03-02 13:38:00,37.4,25.6,29.68,SSW,196,1.0,4.0,62,0.00,,---,0.00,151.00,VWS V14.01,2013-03-02 18:38:00,
2013-03-02 13:41:00,37.5,26.1,29.68,SSW,202,0.0,4.0,63,0.00,,---,0.00,132.00,VWS V14.01,2013-03-02 18:41:00,
2013-03-02 13:42:00,37.5,26.1,29.68,SSW,210,1.0,4.0,63,0.00,,---,0.00,132.00,VWS V14.01,2013-03-02 18:42:00,
2013-03-02 13:43:00,37.5,25.7,29.68,SW,227,2.0,3.0,62,0.00,,---,0.00,118.00,VWS V14.01,2013-03-02 18:43:00,
2013-03-02 13:46:00,37.5,26.1,29.68,WSW,248,0.0,3.0,63,0.00,,---,0.00,134.00,VWS V14.01,2013-03-02 18:46:00,
2013-03-02 13:47:00,37.5,25.7,29.68,WSW,243,1.0,3.0,62,0.00,,---,0.00,137.00,VWS V14.01,2013-03-02 18:47:00,
2013-03-02 13:48:00,37.5,25.7,29.68,WSW,254,0.0,3.0,62,0.00,,---,0.00,142.00,VWS V14.01,2013-03-02 18:48:00,
2013-03-02 13:51:00,37.5,25.3,29.68,WNW,299,0.0,3.0,61,0.00,,---,0.00,171.00,VWS V14.01,2013-03-02 18:51:00,
2013-03-02 13:52:00,37.5,25.3,29.68,NW,310,2.0,3.0,61,0.00,,---,0.00,171.00,VWS V14.01,2013-03-02 18:52:00,
2013-03-02 13:53:00,37.6,25.4,29.68,NW,313,0.0,2.0,61,0.00,,---,0.00,174.00,VWS V14.01,2013-03-02 18:53:00,
2013-03-02 13:54:00,37.5,25.3,29.68,NW,313,0.0,2.0,61,0.00,,---,0.00,174.00,VWS V14.01,2013-03-02 18:54:00,
2013-03-02 13:57:00,37.7,25.5,29.68,NNW,329,1.0,3.0,61,0.00,,---,0.00,167.00,VWS V14.01,2013-03-02 18:57:00,
2013-03-02 13:58:00,37.8,25.6,29.68,NNW,342,0.0,4.0,61,0.00,,---,0.00,167.00,VWS V14.01,2013-03-02 18:58:00,
2013-03-02 13:59:00,37.8,25.6,29.68,NNW,342,0.0,4.0,61,0.00,,---,0.00,167.00,VWS V14.01,2013-03-02 18:59:00,
2013-03-02 14:02:00,37.9,26.1,29.68,SW,234,0.0,4.0,62,0.00,,---,0.00,158.00,VWS V14.01,2013-03-02 19:02:00,
2013-03-02 14:03:00,37.9,26.1,29.68,SW,236,0.0,3.0,62,0.00,,---,0.00,146.00,VWS V14.01,2013-03-02 19:03:00,
2013-03-02 14:04:00,37.9,26.1,29.68,SW,236,0.0,3.0,62,0.00,,---,0.00,146.00,VWS V14.01,2013-03-02 19:04:00,
2013-03-02 14:07:00,37.6,25.0,29.68,WSW,238,0.0,4.0,60,0.00,,---,0.00,120.00,VWS V14.01,2013-03-02 19:07:00,
2013-03-02 14:08:00,37.5,25.3,29.68,NNW,347,0.0,4.0,61,0.00,,---,0.00,118.00,VWS V14.01,2013-03-02 19:08:00,
2013-03-02 14:09:00,37.5,25.7,29.68,NNW,347,0.0,4.0,62,0.00,,---,0.00,118.00,VWS V14.01,2013-03-02 19:09:00,
2013-03-02 14:12:00,37.5,25.7,29.68,North,355,0.0,4.0,62,0.00,,---,0.00,118.00,VWS V14.01,2013-03-02 19:12:00,
2013-03-02 14:13:00,37.5,25.7,29.68,WNW,294,0.0,1.0,62,0.00,,---,0.00,111.00,VWS V14.01,2013-03-02 19:13:00,
2013-03-02 14:14:00,37.4,26.0,29.68,South,188,0.0,1.0,63,0.00,,---,0.00,111.00,VWS V14.01,2013-03-02 19:14:00,
2013-03-02 14:17:00,37.4,26.0,29.67,NE,38,0.0,5.0,63,0.00,,---,0.00,107.00,VWS V14.01,2013-03-02 19:17:00,
2013-03-02 14:18:00,37.4,25.6,29.67,NNW,336,1.0,5.0,62,0.00,,---,0.00,114.00,VWS V14.01,2013-03-02 19:18:00,
2013-03-02 14:19:00,37.3,25.1,29.67,NNW,329,1.0,5.0,61,0.00,,---,0.00,114.00,VWS V14.01,2013-03-02 19:19:00,
2013-03-02 14:22:00,37.3,25.1,29.67,WSW,242,2.0,2.0,61,0.00,,---,0.00,118.00,VWS V14.01,2013-03-02 19:22:00,
2013-03-02 14:23:00,37.3,25.5,29.67,NW,310,0.0,2.0,62,0.00,,---,0.00,118.00,VWS V14.01,2013-03-02 19:23:00,
2013-03-02 14:25:00,37.3,25.5,29.67,NNE,25,1.0,5.0,62,0.00,,---,0.00,123.00,VWS V14.01,2013-03-02 19:25:00,
2013-03-02 14:27:00,37.2,25.4,29.67,NNW,330,1.0,5.0,62,0.00,,---,0.00,125.00,VWS V14.01,2013-03-02 19:27:00,
2013-03-02 14:28:00,37.1,24.9,29.67,NNW,345,2.0,5.0,61,0.00,,---,0.00,125.00,VWS V14.01,2013-03-02 19:28:00,
2013-03-02 14:30:00,37.1,24.9,29.67,North,350,1.0,5.0,61,0.00,,---,0.00,123.00,VWS V14.01,2013-03-02 19:30:00,
2013-03-02 14:32:00,37.1,25.7,29.67,NE,40,0.0,1.0,63,0.00,,---,0.00,116.00,VWS V14.01,2013-03-02 19:32:00,
2013-03-02 14:33:00,37.1,25.7,29.67,NE,40,0.0,1.0,63,0.00,,---,0.00,116.00,VWS V14.01,2013-03-02 19:33:00,
2013-03-02 14:34:00,37.2,25.8,29.67,NE,40,0.0,1.0,63,0.00,,---,0.00,114.00,VWS V14.01,2013-03-02 19:34:00,
2013-03-02 14:35:00,37.3,26.3,29.67,SW,221,0.0,3.0,64,0.00,,---,0.00,107.00,VWS V14.01,2013-03-02 19:35:00,
2013-03-02 14:38:00,37.2,25.4,29.67,South,175,1.0,3.0,62,0.00,,---,0.00,105.00,VWS V14.01,2013-03-02 19:38:00,
2013-03-02 14:39:00,37.2,25.8,29.67,North,350,1.0,3.0,63,0.00,,---,0.00,100.00,VWS V14.01,2013-03-02 19:39:00,
2013-03-02 14:40:00,37.1,25.7,29.67,NE,47,1.0,3.0,63,0.00,,---,0.00,98.00,VWS V14.01,2013-03-02 19:40:00,
2013-03-02 14:43:00,37.0,25.2,29.67,North,355,0.0,0.0,62,0.00,,---,0.00,86.00,VWS V14.01,2013-03-02 19:43:00,
2013-03-02 14:44:00,37.0,25.6,29.67,NE,42,0.0,2.0,63,0.00,,---,0.00,81.00,VWS V14.01,2013-03-02 19:44:00,
2013-03-02 14:45:00,37.0,25.6,29.67,NNW,340,0.0,3.0,63,0.00,,---,0.00,79.00,VWS V14.01,2013-03-02 19:45:00,
2013-03-02 14:48:00,36.9,25.5,29.67,North,355,2.0,3.0,63,0.00,,---,0.00,90.00,VWS V14.01,2013-03-02 19:48:00,
2013-03-02 14:49:00,36.9,25.9,29.67,North,355,3.0,3.0,64,0.00,,---,0.00,90.00,VWS V14.01,2013-03-02 19:49:00,
2013-03-02 14:50:00,36.9,25.1,29.67,NNW,346,1.0,3.0,62,0.00,,---,0.00,93.00,VWS V14.01,2013-03-02 19:50:00,
2013-03-02 14:53:00,36.8,25.4,29.67,West,279,0.0,0.0,63,0.00,,---,0.00,98.00,VWS V14.01,2013-03-02 19:53:00,
2013-03-02 14:54:00,36.9,25.1,29.67,SW,236,0.0,2.0,62,0.00,,---,0.00,97.00,VWS V14.01,2013-03-02 19:54:00,
2013-03-02 14:55:00,36.8,25.4,29.67,SW,236,0.0,2.0,63,0.00,,---,0.00,91.00,VWS V14.01,2013-03-02 19:55:00,
2013-03-02 14:58:00,36.9,25.5,29.67,NNW,338,0.0,4.0,63,0.00,,---,0.00,81.00,VWS V14.01,2013-03-02 19:58:00,
2013-03-02 14:59:00,36.9,25.9,29.67,North,355,0.0,4.0,64,0.00,,---,0.00,79.00,VWS V14.01,2013-03-02 19:59:00,
2013-03-02 15:00:00,37.0,26.3,29.67,North,355,2.0,4.0,65,0.00,,---,0.00,76.00,VWS V14.01,2013-03-02 20:00:00,
2013-03-02 15:03:00,36.9,25.5,29.67,NNW,344,0.0,2.0,63,0.00,,---,0.00,86.00,VWS V14.01,2013-03-02 20:03:00,
2013-03-02 15:04:00,36.9,25.9,29.67,ENE,67,0.0,3.0,64,0.00,,---,0.00,91.00,VWS V14.01,2013-03-02 20:04:00,
2013-03-02 15:05:00,36.9,25.9,29.67,ENE,67,0.0,3.0,64,0.00,,---,0.00,95.00,VWS V14.01,2013-03-02 20:05:00,
2013-03-02 15:08:00,36.8,25.8,29.67,NNE,17,0.0,3.0,64,0.00,,---,0.00,93.00,VWS V14.01,2013-03-02 20:08:00,
2013-03-02 15:09:00,36.9,25.5,29.67,ESE,102,0.0,3.0,63,0.00,,---,0.00,91.00,VWS V14.01,2013-03-02 20:09:00,
2013-03-02 15:10:00,36.8,25.4,29.67,SE,136,1.0,3.0,63,0.00,,---,0.00,86.00,VWS V14.01,2013-03-02 20:10:00,
2013-03-02 15:13:00,36.7,25.3,29.67,NNE,24,0.0,3.0,63,0.00,,---,0.00,84.00,VWS V14.01,2013-03-02 20:13:00,
2013-03-02 15:14:00,36.7,25.3,29.67,NNE,24,0.0,3.0,63,0.00,,---,0.00,84.00,VWS V14.01,2013-03-02 20:14:00,
2013-03-02 15:15:00,36.7,25.7,29.67,NNE,24,0.0,3.0,64,0.00,,---,0.00,88.00,VWS V14.01,2013-03-02 20:15:00,
2013-03-02 15:18:00,36.8,26.1,29.67,East,85,3.0,4.0,65,0.00,,---,0.00,84.00,VWS V14.01,2013-03-02 20:18:00,
2013-03-02 15:19:00,36.9,26.2,29.67,NNW,329,2.0,4.0,65,0.00,,---,0.00,84.00,VWS V14.01,2013-03-02 20:19:00,
2013-03-02 15:20:00,36.9,25.9,29.67,SW,223,2.0,6.0,64,0.00,,---,0.00,83.00,VWS V14.01,2013-03-02 20:20:00,
2013-03-02 15:23:00,36.8,25.4,29.67,NNW,341,3.0,3.0,63,0.00,,---,0.00,81.00,VWS V14.01,2013-03-02 20:23:00,
2013-03-02 15:24:00,36.8,25.4,29.67,SW,234,1.0,3.0,63,0.00,,---,0.00,83.00,VWS V14.01,2013-03-02 20:24:00,
2013-03-02 15:25:00,36.8,25.4,29.67,SSW,197,0.0,3.0,63,0.00,,---,0.00,83.00,VWS V14.01,2013-03-02 20:25:00,
2013-03-02 15:28:00,36.7,25.7,29.67,East,90,1.0,3.0,64,0.00,,---,0.00,83.00,VWS V14.01,2013-03-02 20:28:00,
2013-03-02 15:29:00,36.7,25.7,29.67,SSE,156,1.0,3.0,64,0.00,,---,0.00,84.00,VWS V14.01,2013-03-02 20:29:00,
2013-03-02 15:30:00,36.7,25.7,29.67,SSE,158,0.0,3.0,64,0.00,,---,0.00,86.00,VWS V14.01,2013-03-02 20:30:00,
2013-03-02 15:33:00,36.7,25.7,29.67,South,188,1.0,2.0,64,0.00,,---,0.00,81.00,VWS V14.01,2013-03-02 20:33:00,
2013-03-02 15:34:00,36.7,25.7,29.67,South,188,0.0,2.0,64,0.00,,---,0.00,77.00,VWS V14.01,2013-03-02 20:34:00,
2013-03-02 15:35:00,36.8,26.1,29.67,South,188,0.0,2.0,65,0.00,,---,0.00,74.00,VWS V14.01,2013-03-02 20:35:00,
2013-03-02 15:36:00,36.8,25.8,29.67,South,188,0.0,2.0,64,0.00,,---,0.00,72.00,VWS V14.01,2013-03-02 20:36:00,
2013-03-02 15:38:00,36.8,25.8,29.67,North,360,0.0,2.0,64,0.00,,---,0.00,74.00,VWS V14.01,2013-03-02 20:38:00,
2013-03-02 15:39:00,36.8,25.8,29.67,North,360,0.0,2.0,64,0.00,,---,0.00,74.00,VWS V14.01,2013-03-02 20:39:00,
2013-03-02 15:40:00,36.8,25.8,29.67,SW,224,1.0,2.0,64,0.00,,---,0.00,72.00,VWS V14.01,2013-03-02 20:40:00,
2013-03-02 15:41:00,36.7,25.3,29.67,West,279,0.0,2.0,63,0.00,,---,0.00,70.00,VWS V14.01,2013-03-02 20:41:00,
2013-03-02 15:43:00,36.7,25.7,29.67,NNW,329,2.0,3.0,64,0.00,,---,0.00,62.00,VWS V14.01,2013-03-02 20:43:00,
2013-03-02 15:44:00,36.6,24.8,29.67,NNW,329,0.0,3.0,62,0.00,,---,0.00,62.00,VWS V14.01,2013-03-02 20:44:00,
2013-03-02 15:45:00,36.6,25.2,29.67,NNW,339,1.0,3.0,63,0.00,,---,0.00,54.00,VWS V14.01,2013-03-02 20:45:00,
2013-03-02 15:46:00,36.6,25.6,29.66,NNW,339,2.0,3.0,64,0.00,,---,0.00,54.00,VWS V14.01,2013-03-02 20:46:00,
2013-03-02 15:48:00,36.5,25.1,29.67,NNE,16,1.0,3.0,63,0.00,,---,0.00,56.00,VWS V14.01,2013-03-02 20:48:00,
2013-03-02 15:49:00,36.5,25.1,29.67,North,5,2.0,4.0,63,0.00,,---,0.00,56.00,VWS V14.01,2013-03-02 20:49:00,
2013-03-02 15:50:00,36.4,25.0,29.66,North,355,0.0,4.0,63,0.00,,---,0.00,60.00,VWS V14.01,2013-03-02 20:50:00,
2013-03-02 15:51:00,36.4,25.0,29.66,NNE,17,2.0,4.0,63,0.00,,---,0.00,58.00,VWS V14.01,2013-03-02 20:51:00,
2013-03-02 15:53:00,36.3,24.9,29.66,NNW,342,0.0,3.0,63,0.00,,---,0.00,62.00,VWS V14.01,2013-03-02 20:53:00,
2013-03-02 15:54:00,36.3,25.3,29.66,NNW,342,0.0,3.0,64,0.00,,---,0.00,62.00,VWS V14.01,2013-03-02 20:54:00,
2013-03-02 15:55:00,36.3,25.3,29.66,WSW,258,1.0,3.0,64,0.00,,---,0.00,63.00,VWS V14.01,2013-03-02 20:55:00,
2013-03-02 15:56:00,36.3,25.3,29.66,WSW,258,0.0,3.0,64,0.00,,---,0.00,63.00,VWS V14.01,2013-03-02 20:56:00,
2013-03-02 15:58:00,36.3,25.3,29.66,WNW,293,0.0,4.0,64,0.00,,---,0.00,54.00,VWS V14.01,2013-03-02 20:58:00,
2013-03-02 15:59:00,36.3,25.7,29.66,WNW,301,1.0,4.0,65,0.00,,---,0.00,54.00,VWS V14.01,2013-03-02 20:59:00,
2013-03-02 16:00:00,36.3,25.3,29.66,NW,306,0.0,4.0,64,0.00,,---,0.00,54.00,VWS V14.01,2013-03-02 21:00:00,
2013-03-02 16:01:00,36.3,24.9,29.66,NW,306,0.0,4.0,63,0.00,,---,0.00,54.00,VWS V14.01,2013-03-02 21:01:00,
2013-03-02 16:03:00,36.3,25.3,29.66,NW,306,0.0,0.0,64,0.00,,---,0.00,49.00,VWS V14.01,2013-03-02 21:03:00,
2013-03-02 16:04:00,36.4,25.8,29.66,South,177,1.0,1.0,65,0.00,,---,0.00,47.00,VWS V14.01,2013-03-02 21:04:00,
2013-03-02 16:05:00,36.4,25.4,29.66,SW,226,0.0,1.0,64,0.00,,---,0.00,44.00,VWS V14.01,2013-03-02 21:05:00,
2013-03-02 16:06:00,36.4,25.4,29.66,SW,226,0.0,1.0,64,0.00,,---,0.00,44.00,VWS V14.01,2013-03-02 21:06:00,
2013-03-02 16:08:00,36.3,25.3,29.66,NNW,338,2.0,2.0,64,0.00,,---,0.00,37.00,VWS V14.01,2013-03-02 21:08:00,
2013-03-02 16:09:00,36.3,25.3,29.67,SW,214,3.0,3.0,64,0.00,,---,0.00,37.00,VWS V14.01,2013-03-02 21:09:00,
2013-03-02 16:11:00,36.3,25.3,29.67,WNW,292,0.0,3.0,64,0.00,,---,0.00,35.00,VWS V14.01,2013-03-02 21:11:00,
2013-03-02 16:13:00,36.2,25.2,29.66,West,269,0.0,1.0,64,0.00,,---,0.00,37.00,VWS V14.01,2013-03-02 21:13:00,
2013-03-02 16:14:00,36.1,25.1,29.67,West,269,0.0,1.0,64,0.00,,---,0.00,37.00,VWS V14.01,2013-03-02 21:14:00,
2013-03-02 16:16:00,36.1,25.1,29.67,West,269,0.0,1.0,64,0.00,,---,0.00,35.00,VWS V14.01,2013-03-02 21:16:00,
2013-03-02 16:19:00,36.1,25.1,29.67,North,5,0.0,2.0,64,0.00,,---,0.00,30.00,VWS V14.01,2013-03-02 21:19:00,
2013-03-02 16:21:00,36.0,25.0,29.67,WSW,237,1.0,3.0,64,0.00,,---,0.00,28.00,VWS V14.01,2013-03-02 21:21:00,
2013-03-02 16:24:00,36.0,25.4,29.67,WNW,293,1.0,2.0,65,0.00,,---,0.00,28.00,VWS V14.01,2013-03-02 21:24:00,
2013-03-02 16:26:00,35.9,24.9,29.67,NNE,30,0.0,4.0,64,0.00,,---,0.00,28.00,VWS V14.01,2013-03-02 21:26:00,
2013-03-02 16:29:00,35.9,24.9,29.67,West,267,1.0,4.0,64,0.00,,---,0.00,26.00,VWS V14.01,2013-03-02 21:29:00,
2013-03-02 16:31:00,35.9,25.3,29.67,West,267,0.0,4.0,65,0.00,,---,0.00,26.00,VWS V14.01,2013-03-02 21:31:00,
2013-03-02 16:34:00,35.9,25.3,29.67,NNW,334,0.0,2.0,65,0.00,,---,0.00,26.00,VWS V14.01,2013-03-02 21:34:00,
2013-03-02 16:36:00,35.8,24.8,29.67,NNW,334,0.0,2.0,64,0.00,,---,0.00,26.00,VWS V14.01,2013-03-02 21:36:00,
2013-03-02 16:39:00,35.8,25.2,29.67,North,360,1.0,2.0,65,0.00,,---,0.00,25.00,VWS V14.01,2013-03-02 21:39:00,
2013-03-02 16:41:00,35.8,24.8,29.67,North,360,0.0,2.0,64,0.00,,---,0.00,25.00,VWS V14.01,2013-03-02 21:41:00,
2013-03-02 16:44:00,35.8,25.2,29.67,North,355,2.0,2.0,65,0.00,,---,0.00,23.00,VWS V14.01,2013-03-02 21:44:00,
2013-03-02 16:46:00,35.7,25.1,29.67,North,355,0.0,2.0,65,0.00,,---,0.00,21.00,VWS V14.01,2013-03-02 21:46:00,
2013-03-02 16:47:00,35.7,25.1,29.67,North,355,0.0,2.0,65,0.00,,---,0.00,21.00,VWS V14.01,2013-03-02 21:47:00,
2013-03-02 16:49:00,35.7,25.1,29.67,North,9,4.0,4.0,65,0.00,,---,0.00,21.00,VWS V14.01,2013-03-02 21:49:00,
2013-03-02 16:52:00,35.7,25.1,29.67,North,350,0.0,4.0,65,0.00,,---,0.00,23.00,VWS V14.01,2013-03-02 21:52:00,
2013-03-02 16:54:00,35.6,24.6,29.67,NNW,329,1.0,2.0,64,0.00,,---,0.00,23.00,VWS V14.01,2013-03-02 21:54:00,
2013-03-02 16:57:00,35.6,24.6,29.67,WNW,288,2.0,3.0,64,0.00,,---,0.00,21.00,VWS V14.01,2013-03-02 21:57:00,
2013-03-02 16:59:00,35.5,24.5,29.67,North,9,0.0,4.0,64,0.00,,---,0.00,19.00,VWS V14.01,2013-03-02 21:59:00,
2013-03-02 17:02:00,35.5,24.5,29.67,SW,230,1.0,2.0,64,0.00,,---,0.00,14.00,VWS V14.01,2013-03-02 22:02:00,
2013-03-02 17:04:00,35.5,24.9,29.67,WSW,240,0.0,2.0,65,0.00,,---,0.00,12.00,VWS V14.01,2013-03-02 22:04:00,
2013-03-02 17:05:00,35.5,24.9,29.67,WSW,240,0.0,2.0,65,0.00,,---,0.00,12.00,VWS V14.01,2013-03-02 22:05:00,
2013-03-02 17:07:00,35.4,25.2,29.68,NNW,344,0.0,2.0,66,0.00,,---,0.00,11.00,VWS V14.01,2013-03-02 22:07:00,
2013-03-02 17:09:00,35.4,24.5,29.68,WSW,250,1.0,2.0,64,0.00,,---,0.00,11.00,VWS V14.01,2013-03-02 22:09:00,
2013-03-02 17:10:00,35.4,24.8,29.68,West,277,0.0,2.0,65,0.00,,---,0.00,11.00,VWS V14.01,2013-03-02 22:10:00,
2013-03-02 17:12:00,35.3,24.7,29.68,North,5,0.0,0.0,65,0.00,,---,0.00,11.00,VWS V14.01,2013-03-02 22:12:00,
2013-03-02 17:14:00,35.3,24.7,29.68,North,355,0.0,1.0,65,0.00,,---,0.00,11.00,VWS V14.01,2013-03-02 22:14:00,
2013-03-02 17:15:00,35.3,25.1,29.68,North,355,0.0,1.0,66,0.00,,---,0.00,11.00,VWS V14.01,2013-03-02 22:15:00,
2013-03-02 17:17:00,35.3,24.7,29.68,North,355,0.0,2.0,65,0.00,,---,0.00,9.00,VWS V14.01,2013-03-02 22:17:00,
2013-03-02 17:19:00,35.2,24.6,29.68,North,355,0.0,2.0,65,0.00,,---,0.00,7.00,VWS V14.01,2013-03-02 22:19:00,
2013-03-02 17:20:00,35.2,24.6,29.68,North,355,0.0,2.0,65,0.00,,---,0.00,7.00,VWS V14.01,2013-03-02 22:20:00,
2013-03-02 17:22:00,35.2,24.3,29.68,North,355,2.0,2.0,64,0.00,,---,0.00,5.00,VWS V14.01,2013-03-02 22:22:00,
2013-03-02 17:24:00,35.2,24.6,29.68,North,355,0.0,2.0,65,0.00,,---,0.00,5.00,VWS V14.01,2013-03-02 22:24:00,
2013-03-02 17:25:00,35.2,25.0,29.68,North,355,0.0,2.0,66,0.00,,---,0.00,5.00,VWS V14.01,2013-03-02 22:25:00,
2013-03-02 17:27:00,35.1,24.2,29.68,North,355,0.0,2.0,64,0.00,,---,0.00,0.00,VWS V14.01,2013-03-02 22:27:00,
2013-03-02 17:28:00,35.1,24.2,29.68,North,355,0.0,2.0,64,0.00,,---,0.00,0.00,VWS V14.01,2013-03-02 22:28:00,
2013-03-02 17:29:00,35.1,24.9,29.68,North,355,0.0,2.0,66,0.00,,---,0.00,0.00,VWS V14.01,2013-03-02 22:29:00,
2013-03-02 17:30:00,35.1,24.9,29.68,North,355,0.0,2.0,66,0.00,,---,0.00,0.00,VWS V14.01,2013-03-02 22:30:00,
2013-03-02 17:32:00,35.1,24.9,29.68,North,355,0.0,0.0,66,0.00,,---,0.00,0.00,VWS V14.01,2013-03-02 22:32:00,
2013-03-02 17:33:00,35.1,24.9,29.68,North,355,0.0,0.0,66,0.00,,---,0.00,0.00,VWS V14.01,2013-03-02 22:33:00,
2013-03-02 17:35:00,35.0,24.4,29.68,West,269,0.0,1.0,65,0.00,,---,0.00,0.00,VWS V14.01,2013-03-02 22:35:00,
2013-03-02 17:37:00,35.0,24.8,29.68,WNW,282,0.0,2.0,66,0.00,,---,0.00,0.00,VWS V14.01,2013-03-02 22:37:00,
2013-03-02 17:38:00,35.0,24.8,29.68,WNW,282,0.0,2.0,66,0.00,,---,0.00,0.00,VWS V14.01,2013-03-02 22:38:00,
2013-03-02 17:40:00,35.0,25.2,29.68,NW,304,0.0,2.0,67,0.00,,---,0.00,0.00,VWS V14.01,2013-03-02 22:40:00,
2013-03-02 17:43:00,35.0,24.8,29.68,NW,308,0.0,2.0,66,0.00,,---,0.00,0.00,VWS V14.01,2013-03-02 22:43:00,
2013-03-02 17:45:00,34.9,25.1,29.68,NW,323,0.0,2.0,67,0.00,,---,0.00,0.00,VWS V14.01,2013-03-02 22:45:00,
2013-03-02 17:46:00,34.9,24.7,29.68,NW,323,0.0,2.0,66,0.00,,---,0.00,0.00,VWS V14.01,2013-03-02 22:46:00,
2013-03-02 17:48:00,34.9,24.3,29.68,NW,323,0.0,2.0,65,0.00,,---,0.00,0.00,VWS V14.01,2013-03-02 22:48:00,
2013-03-02 17:50:00,34.9,25.1,29.68,NW,323,0.0,2.0,67,0.00,,---,0.00,0.00,VWS V14.01,2013-03-02 22:50:00,
2013-03-02 17:51:00,34.9,25.1,29.68,NW,323,1.0,2.0,67,0.00,,---,0.00,0.00,VWS V14.01,2013-03-02 22:51:00,
2013-03-02 17:53:00,34.9,25.1,29.69,WNW,298,2.0,3.0,67,0.00,,---,0.00,0.00,VWS V14.01,2013-03-02 22:53:00,
2013-03-02 17:55:00,34.8,24.6,29.69,West,269,0.0,3.0,66,0.00,,---,0.00,0.00,VWS V14.01,2013-03-02 22:55:00,
2013-03-02 17:56:00,34.8,24.6,29.69,NE,55,2.0,3.0,66,0.00,,---,0.00,0.00,VWS V14.01,2013-03-02 22:56:00,
2013-03-02 17:58:00,34.8,24.6,29.69,East,100,0.0,3.0,66,0.00,,---,0.00,0.00,VWS V14.01,2013-03-02 22:58:00,
2013-03-02 18:00:00,34.8,24.6,29.69,SSW,209,0.0,3.0,66,0.00,,---,0.00,0.00,VWS V14.01,2013-03-02 23:00:00,
2013-03-02 18:01:00,34.8,24.6,29.69,WNW,293,1.0,3.0,66,0.00,,---,0.00,0.00,VWS V14.01,2013-03-02 23:01:00,
2013-03-02 18:03:00,34.8,24.6,29.69,NNW,327,0.0,1.0,66,0.00,,---,0.00,0.00,VWS V14.01,2013-03-02 23:03:00,
2013-03-02 18:05:00,34.8,24.6,29.69,NNW,327,0.0,1.0,66,0.00,,---,0.00,0.00,VWS V14.01,2013-03-02 23:05:00,
2013-03-02 18:06:00,34.8,24.6,29.69,NNW,327,0.0,1.0,66,0.00,,---,0.00,0.00,VWS V14.01,2013-03-02 23:06:00,
2013-03-02 18:08:00,34.7,24.9,29.69,SW,228,0.0,2.0,67,0.00,,---,0.00,0.00,VWS V14.01,2013-03-02 23:08:00,
2013-03-02 18:09:00,34.7,24.9,29.69,NW,305,0.0,2.0,67,0.00,,---,0.00,0.00,VWS V14.01,2013-03-02 23:09:00,
2013-03-02 18:10:00,34.7,24.9,29.69,NW,305,0.0,2.0,67,0.00,,---,0.00,0.00,VWS V14.01,2013-03-02 23:10:00,
2013-03-02 18:11:00,34.7,24.9,29.69,NW,305,0.0,2.0,67,0.00,,---,0.00,0.00,VWS V14.01,2013-03-02 23:11:00,
2013-03-02 18:13:00,34.7,25.2,29.69,NW,305,0.0,0.0,68,0.00,,---,0.00,0.00,VWS V14.01,2013-03-02 23:13:00,
2013-03-02 18:14:00,34.7,25.2,29.69,NW,305,0.0,0.0,68,0.00,,---,0.00,0.00,VWS V14.01,2013-03-02 23:14:00,
2013-03-02 18:16:00,34.7,25.2,29.69,NW,305,0.0,0.0,68,0.00,,---,0.00,0.00,VWS V14.01,2013-03-02 23:16:00,
2013-03-02 18:19:00,34.6,24.8,29.69,NW,305,1.0,1.0,67,0.00,,---,0.00,0.00,VWS V14.01,2013-03-02 23:19:00,
2013-03-02 18:21:00,34.6,25.1,29.69,NW,305,1.0,2.0,68,0.00,,---,0.00,0.00,VWS V14.01,2013-03-02 23:21:00,
2013-03-02 18:24:00,34.6,24.8,29.69,NW,306,0.0,0.0,67,0.00,,---,0.00,0.00,VWS V14.01,2013-03-02 23:24:00,
2013-03-02 18:26:00,34.6,25.1,29.70,NNW,329,0.0,2.0,68,0.00,,---,0.00,0.00,VWS V14.01,2013-03-02 23:26:00,
2013-03-02 18:29:00,34.6,24.8,29.70,NNW,330,0.0,2.0,67,0.00,,---,0.00,0.00,VWS V14.01,2013-03-02 23:29:00,
2013-03-02 18:31:00,34.5,24.7,29.70,NNE,24,1.0,2.0,67,0.00,,---,0.00,0.00,VWS V14.01,2013-03-02 23:31:00,
2013-03-02 18:34:00,34.5,25.0,29.70,WSW,240,0.0,1.0,68,0.00,,---,0.00,0.00,VWS V14.01,2013-03-02 23:34:00,
2013-03-02 18:36:00,34.5,24.7,29.70,North,355,1.0,3.0,67,0.00,,---,0.00,0.00,VWS V14.01,2013-03-02 23:36:00,
2013-03-02 18:37:00,34.5,24.7,29.70,West,281,1.0,3.0,67,0.00,,---,0.00,0.00,VWS V14.01,2013-03-02 23:37:00,
2013-03-02 18:39:00,34.4,24.6,29.70,WNW,290,1.0,3.0,67,0.00,,---,0.00,0.00,VWS V14.01,2013-03-02 23:39:00,
2013-03-02 18:41:00,34.4,24.6,29.70,NNW,343,0.0,3.0,67,0.00,,---,0.00,0.00,VWS V14.01,2013-03-02 23:41:00,
2013-03-02 18:42:00,34.4,24.2,29.70,NNW,342,2.0,3.0,66,0.00,,---,0.00,0.00,VWS V14.01,2013-03-02 23:42:00,
2013-03-02 18:44:00,34.4,24.6,29.70,North,355,0.0,4.0,67,0.00,,---,0.00,0.00,VWS V14.01,2013-03-02 23:44:00,
2013-03-02 18:47:00,34.3,25.2,29.70,North,355,0.0,4.0,69,0.00,,---,0.00,0.00,VWS V14.01,2013-03-02 23:47:00,
2013-03-02 18:49:00,34.3,24.9,29.70,WNW,294,0.0,4.0,68,0.00,,---,0.00,0.00,VWS V14.01,2013-03-02 23:49:00,
2013-03-02 18:52:00,34.2,25.1,29.70,ESE,112,1.0,4.0,69,0.00,,---,0.00,0.00,VWS V14.01,2013-03-02 23:52:00,
2013-03-02 18:54:00,34.2,25.1,29.70,NE,46,0.0,4.0,69,0.00,,---,0.00,0.00,VWS V14.01,2013-03-02 23:54:00,
2013-03-02 18:57:00,34.2,25.1,29.70,NNW,342,0.0,4.0,69,0.00,,---,0.00,0.00,VWS V14.01,2013-03-02 23:57:00,
2013-03-02 18:59:00,34.1,25.4,29.70,NNW,342,0.0,4.0,70,0.00,,---,0.00,0.00,VWS V14.01,2013-03-02 23:59:00,
2013-03-02 19:00:00,34.1,25.4,29.70,NNW,342,1.0,4.0,70,0.00,,---,0.00,0.00,VWS V14.01,2013-03-03 00:00:00,
2013-03-02 19:02:00,34.0,25.3,29.70,NNE,22,2.0,4.0,70,0.00,,---,0.00,0.00,VWS V14.01,2013-03-03 00:02:00,
2013-03-02 19:04:00,33.9,25.2,29.70,NNE,26,0.0,3.0,70,0.00,,---,0.00,0.00,VWS V14.01,2013-03-03 00:04:00,
2013-03-02 19:05:00,33.9,25.2,29.70,NNE,26,0.0,3.0,70,0.00,,---,0.00,0.00,VWS V14.01,2013-03-03 00:05:00,
2013-03-02 19:07:00,33.8,25.4,29.70,NNE,19,0.0,3.0,71,0.00,,---,0.00,0.00,VWS V14.01,2013-03-03 00:07:00,
2013-03-02 19:10:00,33.8,25.4,29.70,NNE,21,0.0,3.0,71,0.00,,---,0.00,0.00,VWS V14.01,2013-03-03 00:10:00,
2013-03-02 19:12:00,33.7,25.6,29.70,North,351,1.0,5.0,72,0.00,,---,0.00,0.00,VWS V14.01,2013-03-03 00:12:00,
2013-03-02 19:15:00,33.6,25.5,29.70,WNW,292,0.0,1.0,72,0.00,,---,0.00,0.00,VWS V14.01,2013-03-03 00:15:00,
2013-03-02 19:17:00,33.6,25.5,29.70,NE,35,0.0,1.0,72,0.00,,---,0.00,0.00,VWS V14.01,2013-03-03 00:17:00,
2013-03-02 19:20:00,33.5,25.8,29.70,NNE,20,1.0,1.0,73,0.00,,---,0.00,0.00,VWS V14.01,2013-03-03 00:20:00,
2013-03-02 19:22:00,33.5,25.8,29.70,NNE,18,0.0,0.0,73,0.00,,---,0.00,0.00,VWS V14.01,2013-03-03 00:22:00,
2013-03-02 19:23:00,33.5,25.8,29.70,NNE,18,0.0,0.0,73,0.00,,---,0.00,0.00,VWS V14.01,2013-03-03 00:23:00,
2013-03-02 19:25:00,33.4,25.7,29.70,NNE,18,0.0,3.0,73,0.00,,---,0.00,0.00,VWS V14.01,2013-03-03 00:25:00,
2013-03-02 19:27:00,33.4,25.7,29.70,North,355,0.0,3.0,73,0.00,,---,0.00,0.00,VWS V14.01,2013-03-03 00:27:00,
2013-03-02 19:28:00,33.4,25.7,29.70,North,355,2.0,3.0,73,0.00,,---,0.00,0.00,VWS V14.01,2013-03-03 00:28:00,
2013-03-02 19:30:00,33.4,25.4,29.70,NNW,340,0.0,3.0,72,0.00,,---,0.00,0.00,VWS V14.01,2013-03-03 00:30:00,
2013-03-02 19:32:00,33.3,24.9,29.70,NNE,33,3.0,3.0,71,0.00,,---,0.00,0.00,VWS V14.01,2013-03-03 00:32:00,
2013-03-02 19:33:00,33.4,25.0,29.70,NNE,13,1.0,3.0,71,0.00,,---,0.00,0.00,VWS V14.01,2013-03-03 00:33:00,
2013-03-02 19:35:00,33.3,25.3,29.70,NNE,13,0.0,3.0,72,0.00,,---,0.00,0.00,VWS V14.01,2013-03-03 00:35:00,
2013-03-02 19:37:00,33.3,25.3,29.70,NNW,344,1.0,3.0,72,0.00,,---,0.00,0.00,VWS V14.01,2013-03-03 00:37:00,
2013-03-02 19:38:00,33.3,25.3,29.70,North,355,0.0,3.0,72,0.00,,---,0.00,0.00,VWS V14.01,2013-03-03 00:38:00,
2013-03-02 19:40:00,33.3,25.3,29.70,North,355,0.0,3.0,72,0.00,,---,0.00,0.00,VWS V14.01,2013-03-03 00:40:00,
2013-03-02 19:42:00,33.3,25.6,29.70,North,5,0.0,0.0,73,0.00,,---,0.00,0.00,VWS V14.01,2013-03-03 00:42:00,
2013-03-02 19:43:00,33.3,25.6,29.70,North,5,0.0,2.0,73,0.00,,---,0.00,0.00,VWS V14.01,2013-03-03 00:43:00,
2013-03-02 19:45:00,33.3,25.6,29.70,North,349,2.0,3.0,73,0.00,,---,0.00,0.00,VWS V14.01,2013-03-03 00:45:00,
2013-03-02 19:47:00,33.2,25.5,29.70,NNE,21,2.0,5.0,73,0.00,,---,0.00,0.00,VWS V14.01,2013-03-03 00:47:00,
2013-03-02 19:48:00,33.3,25.6,29.70,North,9,1.0,5.0,73,0.00,,---,0.00,0.00,VWS V14.01,2013-03-03 00:48:00,
2013-03-02 19:50:00,33.2,25.8,29.70,NE,40,0.0,5.0,74,0.00,,---,0.00,0.00,VWS V14.01,2013-03-03 00:50:00,
2013-03-02 19:52:00,33.2,25.8,29.70,North,355,1.0,2.0,74,0.00,,---,0.00,0.00,VWS V14.01,2013-03-03 00:52:00,
2013-03-02 19:53:00,33.2,25.5,29.70,NNW,342,0.0,4.0,73,0.00,,---,0.00,0.00,VWS V14.01,2013-03-03 00:53:00,
2013-03-02 19:55:00,33.2,25.5,29.70,NNW,338,0.0,4.0,73,0.00,,---,0.00,0.00,VWS V14.01,2013-03-03 00:55:00,
2013-03-02 19:57:00,33.1,25.4,29.70,West,267,0.0,4.0,73,0.00,,---,0.00,0.00,VWS V14.01,2013-03-03 00:57:00,
2013-03-02 19:58:00,33.1,25.7,29.70,West,267,0.0,4.0,74,0.00,,---,0.00,0.00,VWS V14.01,2013-03-03 00:58:00,
2013-03-02 20:00:00,33.1,25.4,29.70,North,350,1.0,4.0,73,0.00,,---,0.00,0.00,VWS V14.01,2013-03-03 01:00:00,
2013-03-02 20:01:00,33.1,25.4,29.70,NNE,22,0.0,4.0,73,0.00,,---,0.00,0.00,VWS V14.01,2013-03-03 01:01:00,
2013-03-02 20:03:00,33.0,25.6,29.70,NE,46,0.0,0.0,74,0.00,,---,0.00,0.00,VWS V14.01,2013-03-03 01:03:00,
2013-03-02 20:05:00,33.0,26.0,29.70,NE,46,0.0,1.0,75,0.00,,---,0.00,0.00,VWS V14.01,2013-03-03 01:05:00,
2013-03-02 20:06:00,33.0,26.0,29.70,NE,46,0.0,1.0,75,0.00,,---,0.00,0.00,VWS V14.01,2013-03-03 01:06:00,
2013-03-02 20:08:00,32.9,25.9,29.70,SSW,213,2.0,3.0,75,0.00,,---,0.00,0.00,VWS V14.01,2013-03-03 01:08:00,
2013-03-02 20:10:00,32.9,25.9,29.70,NNW,346,0.0,3.0,75,0.00,,---,0.00,0.00,VWS V14.01,2013-03-03 01:10:00,
2013-03-02 20:11:00,32.9,25.9,29.70,NNW,346,0.0,3.0,75,0.00,,---,0.00,0.00,VWS V14.01,2013-03-03 01:11:00,
2013-03-02 20:13:00,32.9,25.9,29.70,NNW,334,1.0,3.0,75,0.00,,---,0.00,0.00,VWS V14.01,2013-03-03 01:13:00,
2013-03-02 20:14:00,32.9,25.9,29.70,NNW,334,0.0,3.0,75,0.00,,---,0.00,0.00,VWS V14.01,2013-03-03 01:14:00,
2013-03-02 20:15:00,32.9,26.2,29.71,SSW,211,2.0,3.0,76,0.00,,---,0.00,0.00,VWS V14.01,2013-03-03 01:15:00,
2013-03-02 20:16:00,32.9,26.2,29.70,SW,225,0.0,3.0,76,0.00,,---,0.00,0.00,VWS V14.01,2013-03-03 01:16:00,
2013-03-02 20:18:00,32.9,26.2,29.71,North,355,0.0,3.0,76,0.00,,---,0.00,0.00,VWS V14.01,2013-03-03 01:18:00,
2013-03-02 20:20:00,32.9,26.2,29.71,SW,224,2.0,3.0,76,0.00,,---,0.00,0.00,VWS V14.01,2013-03-03 01:20:00,
2013-03-02 20:21:00,32.8,25.8,29.71,NNE,13,0.0,4.0,75,0.00,,---,0.00,0.00,VWS V14.01,2013-03-03 01:21:00,
2013-03-02 20:23:00,32.8,26.1,29.71,NW,320,0.0,1.0,76,0.00,,---,0.00,0.00,VWS V14.01,2013-03-03 01:23:00,
2013-03-02 20:25:00,32.8,26.4,29.70,WNW,300,0.0,1.0,77,0.00,,---,0.00,0.00,VWS V14.01,2013-03-03 01:25:00,
2013-03-02 20:26:00,32.7,26.3,29.71,WNW,290,1.0,1.0,77,0.00,,---,0.00,0.00,VWS V14.01,2013-03-03 01:26:00,
2013-03-02 20:28:00,32.7,26.3,29.71,WNW,291,0.0,1.0,77,0.00,,---,0.00,0.00,VWS V14.01,2013-03-03 01:28:00,
2013-03-02 20:30:00,32.7,26.3,29.71,WNW,297,0.0,1.0,77,0.00,,---,0.00,0.00,VWS V14.01,2013-03-03 01:30:00,
2013-03-02 20:31:00,32.7,26.3,29.71,WNW,297,0.0,1.0,77,0.00,,---,0.00,0.00,VWS V14.01,2013-03-03 01:31:00,
2013-03-02 20:32:00,32.7,26.3,29.71,WNW,297,0.0,1.0,77,0.00,,---,0.00,0.00,VWS V14.01,2013-03-03 01:32:00,
2013-03-02 20:33:00,32.6,26.2,29.71,North,5,1.0,3.0,77,0.00,,---,0.00,0.00,VWS V14.01,2013-03-03 01:33:00,
2013-03-02 20:35:00,32.6,26.2,29.71,West,269,1.0,3.0,77,0.00,,---,0.00,0.00,VWS V14.01,2013-03-03 01:35:00,
2013-03-02 20:36:00,32.6,26.2,29.71,NNW,344,2.0,3.0,77,0.00,,---,0.00,0.00,VWS V14.01,2013-03-03 01:36:00,
2013-03-02 20:37:00,32.6,26.2,29.71,NNW,344,0.0,3.0,77,0.00,,---,0.00,0.00,VWS V14.01,2013-03-03 01:37:00,
2013-03-02 20:38:00,32.6,26.5,29.71,NNW,344,0.0,3.0,78,0.00,,---,0.00,0.00,VWS V14.01,2013-03-03 01:38:00,
2013-03-02 20:40:00,32.5,26.4,29.71,WSW,255,0.0,3.0,78,0.00,,---,0.00,0.00,VWS V14.01,2013-03-03 01:40:00,
2013-03-02 20:41:00,32.5,26.4,29.71,WSW,257,0.0,3.0,78,0.00,,---,0.00,0.00,VWS V14.01,2013-03-03 01:41:00,
2013-03-02 20:42:00,32.5,26.7,29.71,WSW,258,0.0,3.0,79,0.00,,---,0.00,0.00,VWS V14.01,2013-03-03 01:42:00,
2013-03-02 20:43:00,32.5,26.4,29.71,WNW,300,2.0,2.0,78,0.00,,---,0.00,0.00,VWS V14.01,2013-03-03 01:43:00,
2013-03-02 20:45:00,32.5,26.7,29.71,NNE,19,0.0,2.0,79,0.00,,---,0.00,0.00,VWS V14.01,2013-03-03 01:45:00,
2013-03-02 20:46:00,32.4,26.6,29.71,NNE,19,0.0,2.0,79,0.00,,---,0.00,0.00,VWS V14.01,2013-03-03 01:46:00,
2013-03-02 20:47:00,32.4,26.3,29.71,NNE,19,0.0,2.0,78,0.00,,---,0.00,0.00,VWS V14.01,2013-03-03 01:47:00,
2013-03-02 20:48:00,32.4,26.6,29.71,NW,324,0.0,2.0,79,0.00,,---,0.00,0.00,VWS V14.01,2013-03-03 01:48:00,
2013-03-02 20:50:00,32.4,26.6,29.71,NW,324,0.0,2.0,79,0.00,,---,0.00,0.00,VWS V14.01,2013-03-03 01:50:00,
2013-03-02 20:51:00,32.3,26.5,29.71,NW,324,0.0,2.0,79,0.00,,---,0.00,0.00,VWS V14.01,2013-03-03 01:51:00,
2013-03-02 20:52:00,32.4,26.6,29.71,NW,324,0.0,2.0,79,0.00,,---,0.00,0.00,VWS V14.01,2013-03-03 01:52:00,
2013-03-02 20:53:00,32.3,26.5,29.71,NW,325,0.0,0.0,79,0.00,,---,0.00,0.00,VWS V14.01,2013-03-03 01:53:00,
2013-03-02 20:55:00,32.3,26.5,29.71,NW,325,0.0,1.0,79,0.00,,---,0.00,0.00,VWS V14.01,2013-03-03 01:55:00,
2013-03-02 20:56:00,32.3,26.5,29.71,SW,228,0.0,2.0,79,0.00,,---,0.00,0.00,VWS V14.01,2013-03-03 01:56:00,
2013-03-02 20:57:00,32.3,26.5,29.71,SW,228,0.0,2.0,79,0.00,,---,0.00,0.00,VWS V14.01,2013-03-03 01:57:00,
2013-03-02 20:58:00,32.2,26.4,29.71,SW,228,0.0,2.0,79,0.00,,---,0.00,0.00,VWS V14.01,2013-03-03 01:58:00,
2013-03-02 21:01:00,32.2,26.4,29.71,SW,228,0.0,2.0,79,0.00,,---,0.00,0.00,VWS V14.01,2013-03-03 02:01:00,
2013-03-02 21:02:00,32.1,26.3,29.71,SW,228,0.0,0.0,79,0.00,,---,0.00,0.00,VWS V14.01,2013-03-03 02:02:00,
2013-03-02 21:04:00,32.2,26.4,29.71,SW,228,0.0,0.0,79,0.00,,---,0.00,0.00,VWS V14.01,2013-03-03 02:04:00,
2013-03-02 21:06:00,32.2,26.4,29.71,SW,228,0.0,0.0,79,0.00,,---,0.00,0.00,VWS V14.01,2013-03-03 02:06:00,
2013-03-02 21:07:00,32.1,26.3,29.71,ESE,120,0.0,0.0,79,0.00,,---,0.00,0.00,VWS V14.01,2013-03-03 02:07:00,
2013-03-02 21:09:00,32.1,26.3,29.71,North,360,3.0,3.0,79,0.00,,---,0.00,0.00,VWS V14.01,2013-03-03 02:09:00,
2013-03-02 21:11:00,32.1,26.0,29.71,North,355,0.0,3.0,78,0.00,,---,0.00,0.00,VWS V14.01,2013-03-03 02:11:00,
2013-03-02 21:12:00,32.1,26.3,29.71,North,355,0.0,3.0,79,0.00,,---,0.00,0.00,VWS V14.01,2013-03-03 02:12:00,
2013-03-02 21:14:00,32.1,26.3,29.70,North,355,0.0,1.0,79,0.00,,---,0.00,0.00,VWS V14.01,2013-03-03 02:14:00,
2013-03-02 21:17:00,32.0,25.9,29.71,SW,232,0.0,2.0,78,0.00,,---,0.00,0.00,VWS V14.01,2013-03-03 02:17:00,
2013-03-02 21:19:00,32.0,25.9,29.70,SW,232,0.0,2.0,78,0.00,,---,0.00,0.00,VWS V14.01,2013-03-03 02:19:00,
2013-03-02 21:22:00,32.0,25.9,29.71,North,355,0.0,2.0,78,0.00,,---,0.00,0.00,VWS V14.01,2013-03-03 02:22:00,
2013-03-02 21:23:00,32.0,25.6,29.71,North,355,0.0,2.0,77,0.00,,---,0.00,0.00,VWS V14.01,2013-03-03 02:23:00,
2013-03-02 21:24:00,31.9,25.5,29.70,West,273,0.0,2.0,77,0.00,,---,0.00,0.00,VWS V14.01,2013-03-03 02:24:00,
2013-03-02 21:27:00,31.9,25.5,29.70,NW,319,0.0,2.0,77,0.00,,---,0.00,0.00,VWS V14.01,2013-03-03 02:27:00,
2013-03-02 21:28:00,31.9,25.2,29.70,SW,229,0.0,2.0,76,0.00,,---,0.00,0.00,VWS V14.01,2013-03-03 02:28:00,
2013-03-02 21:29:00,31.9,25.2,29.70,NNW,338,1.0,3.0,76,0.00,,---,0.00,0.00,VWS V14.01,2013-03-03 02:29:00,
2013-03-02 21:32:00,31.8,25.1,29.70,NNW,338,0.0,3.0,76,0.00,,---,0.00,0.00,VWS V14.01,2013-03-03 02:32:00,
2013-03-02 21:33:00,31.8,25.1,29.70,WNW,292,1.0,2.0,76,0.00,,---,0.00,0.00,VWS V14.01,2013-03-03 02:33:00,
2013-03-02 21:34:00,31.7,25.0,29.70,SW,234,0.0,3.0,76,0.00,,---,0.00,0.00,VWS V14.01,2013-03-03 02:34:00,
2013-03-02 21:37:00,31.7,25.0,29.70,NNW,346,0.0,3.0,76,0.00,,---,0.00,0.00,VWS V14.01,2013-03-03 02:37:00,
2013-03-02 21:38:00,31.7,24.7,29.71,NNW,346,1.0,3.0,75,0.00,,---,0.00,0.00,VWS V14.01,2013-03-03 02:38:00,
2013-03-02 21:39:00,31.6,24.6,29.70,NNE,14,2.0,3.0,75,0.00,,---,0.00,0.00,VWS V14.01,2013-03-03 02:39:00,
2013-03-02 21:42:00,31.6,24.6,29.70,NNE,14,0.0,3.0,75,0.00,,---,0.00,0.00,VWS V14.01,2013-03-03 02:42:00,
2013-03-02 21:43:00,31.6,24.6,29.70,North,355,0.0,1.0,75,0.00,,---,0.00,0.00,VWS V14.01,2013-03-03 02:43:00,
2013-03-02 21:44:00,31.6,24.6,29.70,North,355,0.0,1.0,75,0.00,,---,0.00,0.00,VWS V14.01,2013-03-03 02:44:00,
2013-03-02 21:47:00,31.6,24.9,29.70,North,355,0.0,1.0,76,0.00,,---,0.00,0.00,VWS V14.01,2013-03-03 02:47:00,
2013-03-02 21:48:00,31.6,24.9,29.70,North,355,0.0,1.0,76,0.00,,---,0.00,0.00,VWS V14.01,2013-03-03 02:48:00,
2013-03-02 21:50:00,31.6,24.9,29.70,North,355,0.0,1.0,76,0.00,,---,0.00,0.00,VWS V14.01,2013-03-03 02:50:00,
2013-03-02 21:52:00,31.5,24.5,29.70,SW,221,0.0,1.0,75,0.00,,---,0.00,0.00,VWS V14.01,2013-03-03 02:52:00,
2013-03-02 21:53:00,31.5,24.8,29.70,SW,221,0.0,1.0,76,0.00,,---,0.00,0.00,VWS V14.01,2013-03-03 02:53:00,
2013-03-02 21:55:00,31.5,24.8,29.70,SW,225,1.0,2.0,76,0.00,,---,0.00,0.00,VWS V14.01,2013-03-03 02:55:00,
2013-03-02 21:57:00,31.5,24.5,29.70,WNW,288,1.0,2.0,75,0.00,,---,0.00,0.00,VWS V14.01,2013-03-03 02:57:00,
2013-03-02 21:58:00,31.5,24.5,29.70,WNW,288,0.0,2.0,75,0.00,,---,0.00,0.00,VWS V14.01,2013-03-03 02:58:00,
2013-03-02 22:00:00,31.5,24.8,29.70,NNW,327,0.0,2.0,76,0.00,,---,0.00,0.00,VWS V14.01,2013-03-03 03:00:00,
2013-03-02 22:02:00,31.5,24.5,29.70,SW,218,0.0,1.0,75,0.00,,---,0.00,0.00,VWS V14.01,2013-03-03 03:02:00,
2013-03-02 22:03:00,31.5,24.5,29.70,SW,218,0.0,1.0,75,0.00,,---,0.00,0.00,VWS V14.01,2013-03-03 03:03:00,
2013-03-02 22:05:00,31.4,24.4,29.70,WSW,254,0.0,4.0,75,0.00,,---,0.00,0.00,VWS V14.01,2013-03-03 03:05:00,
2013-03-02 22:07:00,31.4,24.1,29.70,NNW,331,2.0,4.0,74,0.00,,---,0.00,0.00,VWS V14.01,2013-03-03 03:07:00,
2013-03-02 22:08:00,31.4,24.4,29.70,NNW,331,0.0,4.0,75,0.00,,---,0.00,0.00,VWS V14.01,2013-03-03 03:08:00,
2013-03-02 22:10:00,31.3,24.3,29.70,NNW,327,0.0,4.0,75,0.00,,---,0.00,0.00,VWS V14.01,2013-03-03 03:10:00,
2013-03-02 22:12:00,31.3,24.3,29.70,NNW,333,1.0,2.0,75,0.00,,---,0.00,0.00,VWS V14.01,2013-03-03 03:12:00,
2013-03-02 22:13:00,31.3,24.3,29.70,NNW,333,0.0,2.0,75,0.00,,---,0.00,0.00,VWS V14.01,2013-03-03 03:13:00,
2013-03-02 22:14:00,31.3,24.3,29.70,NNW,333,0.0,2.0,75,0.00,,---,0.00,0.00,VWS V14.01,2013-03-03 03:14:00,
2013-03-02 22:15:00,31.2,24.2,29.70,West,267,0.0,3.0,75,0.00,,---,0.00,0.00,VWS V14.01,2013-03-03 03:15:00,
2013-03-02 22:18:00,31.2,24.2,29.70,NNW,336,0.0,3.0,75,0.00,,---,0.00,0.00,VWS V14.01,2013-03-03 03:18:00,
2013-03-02 22:19:00,31.2,24.2,29.70,NNW,335,0.0,3.0,75,0.00,,---,0.00,0.00,VWS V14.01,2013-03-03 03:19:00,
2013-03-02 22:20:00,31.2,24.2,29.70,NNW,332,0.0,3.0,75,0.00,,---,0.00,0.00,VWS V14.01,2013-03-03 03:20:00,
2013-03-02 22:23:00,31.1,24.4,29.70,NNW,345,2.0,3.0,76,0.00,,---,0.00,0.00,VWS V14.01,2013-03-03 03:23:00,
2013-03-02 22:24:00,31.1,24.1,29.70,NNW,345,0.0,3.0,75,0.00,,---,0.00,0.00,VWS V14.01,2013-03-03 03:24:00,
2013-03-02 22:25:00,31.1,24.4,29.70,NNW,345,0.0,3.0,76,0.00,,---,0.00,0.00,VWS V14.01,2013-03-03 03:25:00,
2013-03-02 22:28:00,31.1,24.1,29.70,North,355,0.0,3.0,75,0.00,,---,0.00,0.00,VWS V14.01,2013-03-03 03:28:00,
2013-03-02 22:29:00,31.1,24.4,29.70,North,355,0.0,3.0,76,0.00,,---,0.00,0.00,VWS V14.01,2013-03-03 03:29:00,
2013-03-02 22:30:00,31.0,24.3,29.70,North,355,0.0,3.0,76,0.00,,---,0.00,0.00,VWS V14.01,2013-03-03 03:30:00,
2013-03-02 22:33:00,31.0,24.0,29.70,NW,321,1.0,3.0,75,0.00,,---,0.00,0.00,VWS V14.01,2013-03-03 03:33:00,
2013-03-02 22:34:00,31.0,24.0,29.70,NW,314,0.0,3.0,75,0.00,,---,0.00,0.00,VWS V14.01,2013-03-03 03:34:00,
2013-03-02 22:35:00,31.0,24.0,29.70,NW,314,0.0,3.0,75,0.00,,---,0.00,0.00,VWS V14.01,2013-03-03 03:35:00,
2013-03-02 22:38:00,30.9,24.2,29.70,WNW,302,0.0,3.0,76,0.00,,---,0.00,0.00,VWS V14.01,2013-03-03 03:38:00,
2013-03-02 22:39:00,30.9,24.2,29.70,WNW,302,0.0,3.0,76,0.00,,---,0.00,0.00,VWS V14.01,2013-03-03 03:39:00,
2013-03-02 22:40:00,30.9,24.2,29.70,West,259,0.0,3.0,76,0.00,,---,0.00,0.00,VWS V14.01,2013-03-03 03:40:00,
2013-03-02 22:43:00,30.8,24.1,29.70,NW,325,0.0,0.0,76,0.00,,---,0.00,0.00,VWS V14.01,2013-03-03 03:43:00,
2013-03-02 22:44:00,30.8,24.1,29.70,NW,325,0.0,0.0,76,0.00,,---,0.00,0.00,VWS V14.01,2013-03-03 03:44:00,
2013-03-02 22:45:00,30.8,24.1,29.70,NW,319,1.0,2.0,76,0.00,,---,0.00,0.00,VWS V14.01,2013-03-03 03:45:00,
2013-03-02 22:48:00,30.8,24.1,29.70,NNW,339,3.0,3.0,76,0.00,,---,0.00,0.00,VWS V14.01,2013-03-03 03:48:00,
2013-03-02 22:49:00,30.8,24.1,29.70,NNW,339,2.0,3.0,76,0.00,,---,0.00,0.00,VWS V14.01,2013-03-03 03:49:00,
2013-03-02 22:51:00,30.7,24.0,29.70,NNW,348,0.0,3.0,76,0.00,,---,0.00,0.00,VWS V14.01,2013-03-03 03:51:00,
2013-03-02 22:54:00,30.7,24.0,29.70,NNE,15,0.0,2.0,76,0.00,,---,0.00,0.00,VWS V14.01,2013-03-03 03:54:00,
2013-03-02 22:56:00,30.6,24.0,29.70,NNW,327,1.0,3.0,76,0.00,,---,0.00,0.00,VWS V14.01,2013-03-03 03:56:00,
2013-03-02 22:59:00,30.6,23.6,29.69,NNW,332,2.0,4.0,75,0.00,,---,0.00,0.00,VWS V14.01,2013-03-03 03:59:00,
2013-03-02 23:01:00,30.5,23.5,29.69,NW,304,0.0,4.0,75,0.00,,---,0.00,0.00,VWS V14.01,2013-03-03 04:01:00,
2013-03-02 23:04:00,30.4,23.4,29.70,West,261,0.0,4.0,75,0.00,,---,0.00,0.00,VWS V14.01,2013-03-03 04:04:00,
2013-03-02 23:06:00,30.4,23.4,29.69,NE,47,1.0,4.0,75,0.00,,---,0.00,0.00,VWS V14.01,2013-03-03 04:06:00,
2013-03-02 23:09:00,30.3,23.3,29.70,NE,42,4.0,4.0,75,0.00,,---,0.00,0.00,VWS V14.01,2013-03-03 04:09:00,
2013-03-02 23:10:00,30.3,23.7,29.70,NNE,30,2.0,4.0,76,0.00,,---,0.00,0.00,VWS V14.01,2013-03-03 04:10:00,
2013-03-02 23:11:00,30.3,23.7,29.70,NW,321,1.0,4.0,76,0.00,,---,0.00,0.00,VWS V14.01,2013-03-03 04:11:00,
2013-03-02 23:14:00,30.2,23.6,29.70,North,360,0.0,3.0,76,0.00,,---,0.00,0.00,VWS V14.01,2013-03-03 04:14:00,
2013-03-02 23:15:00,30.2,23.6,29.70,North,360,0.0,3.0,76,0.00,,---,0.00,0.00,VWS V14.01,2013-03-03 04:15:00,
2013-03-02 23:16:00,30.2,23.6,29.69,North,351,2.0,3.0,76,0.00,,---,0.00,0.00,VWS V14.01,2013-03-03 04:16:00,
2013-03-02 23:19:00,30.1,23.5,29.70,North,355,0.0,3.0,76,0.00,,---,0.00,0.00,VWS V14.01,2013-03-03 04:19:00,
2013-03-02 23:20:00,30.1,23.5,29.70,SW,227,0.0,3.0,76,0.00,,---,0.00,0.00,VWS V14.01,2013-03-03 04:20:00,
2013-03-02 23:21:00,30.1,23.8,29.70,NW,315,1.0,3.0,77,0.00,,---,0.00,0.00,VWS V14.01,2013-03-03 04:21:00,
2013-03-02 23:24:00,30.1,23.8,29.70,North,355,2.0,3.0,77,0.00,,---,0.00,0.00,VWS V14.01,2013-03-03 04:24:00,
2013-03-02 23:25:00,30.1,23.8,29.70,West,275,0.0,3.0,77,0.00,,---,0.00,0.00,VWS V14.01,2013-03-03 04:25:00,
2013-03-02 23:27:00,30.0,23.7,29.70,NNE,22,0.0,3.0,77,0.00,,---,0.00,0.00,VWS V14.01,2013-03-03 04:27:00,
2013-03-02 23:29:00,30.0,23.4,29.70,NNW,344,1.0,3.0,76,0.00,,---,0.00,0.00,VWS V14.01,2013-03-03 04:29:00,
2013-03-02 23:30:00,30.1,23.5,29.70,NNW,343,0.0,3.0,76,0.00,,---,0.00,0.00,VWS V14.01,2013-03-03 04:30:00,
2013-03-02 23:32:00,30.0,23.4,29.70,NNW,336,1.0,2.0,76,0.00,,---,0.00,0.00,VWS V14.01,2013-03-03 04:32:00,
2013-03-02 23:35:00,29.9,23.3,29.70,North,360,3.0,6.0,76,0.00,,---,0.00,0.00,VWS V14.01,2013-03-03 04:35:00,
2013-03-02 23:37:00,29.9,23.3,29.70,North,349,0.0,6.0,76,0.00,,---,0.00,0.00,VWS V14.01,2013-03-03 04:37:00,
2013-03-02 23:40:00,29.9,23.3,29.70,North,351,0.0,6.0,76,0.00,,---,0.00,0.00,VWS V14.01,2013-03-03 04:40:00,
2013-03-02 23:42:00,29.9,23.3,29.70,North,360,0.0,1.0,76,0.00,,---,0.00,0.00,VWS V14.01,2013-03-03 04:42:00,
2013-03-02 23:45:00,29.8,23.2,29.70,West,265,0.0,5.0,76,0.00,,---,0.00,0.00,VWS V14.01,2013-03-03 04:45:00,
2013-03-02 23:47:00,29.8,23.2,29.70,WNW,289,0.0,5.0,76,0.00,,---,0.00,0.00,VWS V14.01,2013-03-03 04:47:00,
2013-03-02 23:50:00,29.8,23.5,29.70,SW,221,0.0,5.0,77,0.00,,---,0.00,0.00,VWS V14.01,2013-03-03 04:50:00,
2013-03-02 23:52:00,29.8,23.5,29.70,NNW,346,1.0,1.0,77,0.00,,---,0.00,0.00,VWS V14.01,2013-03-03 04:52:00,
2013-03-02 23:55:00,29.7,23.4,29.70,North,350,0.0,3.0,77,0.00,,---,0.00,0.00,VWS V14.01,2013-03-03 04:55:00,
2013-03-02 23:57:00,29.7,23.1,29.70,NNW,342,1.0,4.0,76,0.00,,---,0.00,0.00,VWS V14.01,2013-03-03 04:57:00,